FW4770 Weather Reports


Display with metric or nautical units.
time (UTC)temp
F
wind
direction
speed
MPH
gust
MPH
rain 1hr
in
rain 24hr
in
rain mn
in
humidity
%
barometer
mb
20260831203911 89 17 3.0 9.0 0.00 0.00 0.00 52 1012.0
20260831203816 89 20 3.0 10.0 0.00 0.00 0.00 53 1012.0
20260831203721 89 36 4.0 10.0 0.00 0.00 0.00 54 1012.0
20260831203603 89 39 4.0 10.0 0.00 0.00 0.00 53 1012.1
20260831203509 89 46 4.0 10.0 0.00 0.00 0.00 53 1012.1
20260831203357 89 26 5.0 10.0 0.00 0.00 0.00 55 1012.0
20260831203302 89 31 6.0 10.0 0.00 0.00 0.00 54 1012.0
20260831203207 89 355 5.0 10.0 0.00 0.00 0.00 55 1012.0
20260831203112 89 21 4.0 10.0 0.00 0.00 0.00 52 1012.0
20260831202957 89 90 4.0 10.0 0.00 0.00 0.00 54 1012.0
20260831202902 89 76 4.0 9.0 0.00 0.00 0.00 53 1012.0
20260831202811 89 76 4.0 10.0 0.00 0.00 0.00 53 1012.0
20260831202735 89 79 4.0 10.0 0.00 0.00 0.00 54 1012.0
20260831202618 89 40 4.0 10.0 0.00 0.00 0.00 53 1012.0
20260831202456 88 62 4.0 10.0 0.00 0.00 0.00 53 1012.0
20260831202421 88 72 5.0 10.0 0.00 0.00 0.00 55 1012.1
20260831202306 88 59 5.0 10.0 0.00 0.00 0.00 54 1012.1
20260831202210 88 120 6.0 10.0 0.00 0.00 0.00 54 1012.1
20260831202118 88 86 8.0 10.0 0.00 0.00 0.00 54 1012.0
20260831201956 88 96 6.0 10.0 0.00 0.00 0.00 55 1012.0
20260831201921 88 83 4.0 9.0 0.00 0.00 0.00 56 1012.0
20260831201805 88 88 4.0 9.0 0.00 0.00 0.00 57 1012.0
20260831201710 88 61 4.0 9.0 0.00 0.00 0.00 59 1012.0
20260831201556 88 25 6.0 9.0 0.00 0.00 0.00 55 1012.0
20260831201504 88 94 6.0 9.0 0.00 0.00 0.00 55 1012.0
20260831201409 88 96 6.0 9.0 0.00 0.00 0.00 56 1012.0
20260831201254 88 117 5.0 9.0 0.00 0.00 0.00 55 1011.9
20260831201159 88 106 6.0 9.0 0.00 0.00 0.00 56 1012.0
20260831201103 88 90 6.0 9.0 0.00 0.00 0.00 56 1012.0
20260831201007 88 105 6.0 9.0 0.00 0.00 0.00 58 1012.0
20260831200916 89 73 5.0 9.0 0.00 0.00 0.00 58 1012.0
20260831200754 89 80 4.0 10.0 0.00 0.00 0.00 59 1012.0
20260831200659 89 101 4.0 10.0 0.00 0.00 0.00 59 1011.9
20260831200625 88 113 4.0 10.0 0.00 0.00 0.00 58 1012.0
20260831200528 89 69 5.0 10.0 0.00 0.00 0.00 57 1012.0
20260831200412 89 111 6.0 10.0 0.00 0.00 0.00 58 1012.0
20260831200257 89 79 5.0 10.0 0.00 0.00 0.00 58 1012.0
20260831200206 89 77 6.0 10.0 0.00 0.00 0.00 58 1011.9
20260831200130 89 105 6.0 10.0 0.00 0.00 0.00 58 1011.9
20260831200013 89 111 6.0 10.0 0.00 0.00 0.00 58 1011.9
20260831195858 89 88 4.0 9.0 0.00 0.00 0.00 58 1011.9
20260831195803 89 100 6.0 9.0 0.00 0.00 0.00 58 1011.9
20260831195728 89 94 7.0 9.0 0.00 0.00 0.00 59 1011.9
20260831195612 89 119 6.0 9.0 0.00 0.00 0.00 59 1011.9
20260831195519 89 98 6.0 9.0 0.00 0.00 0.00 59 1011.9
20260831195403 89 78 5.0 10.0 0.00 0.00 0.00 59 1011.9
20260831195308 89 96 4.0 10.0 0.00 0.00 0.00 60 1011.9
20260831195213 89 55 3.0 10.0 0.00 0.00 0.00 60 1011.9
20260831195119 89 26 3.0 10.0 0.00 0.00 0.00 60 1011.9
20260831194955 88 59 4.0 10.0 0.00 0.00 0.00 61 1011.9
20260831194904 88 43 4.0 10.0 0.00 0.00 0.00 63 1011.9
20260831194809 88 30 3.0 10.0 0.00 0.00 0.00 62 1011.9
20260831194654 88 64 4.0 10.0 0.00 0.00 0.00 59 1011.9
20260831194559 88 64 5.0 10.0 0.00 0.00 0.00 60 1011.9
20260831194505 88 113 4.0 10.0 0.00 0.00 0.00 62 1011.9
20260831194408 88 111 3.0 10.0 0.00 0.00 0.00 58 1011.9
20260831194257 88 88 2.0 13.0 0.00 0.00 0.00 60 1011.8
20260831194202 88 89 3.0 14.0 0.00 0.00 0.00 59 1011.8
20260831194107 88 88 4.0 14.0 0.00 0.00 0.00 59 1011.8
20260831194012 88 85 6.0 14.0 0.00 0.00 0.00 59 1011.9
20260831193916 88 76 7.0 14.0 0.00 0.00 0.00 61 1011.9
20260831193800 88 69 6.0 14.0 0.00 0.00 0.00 61 1011.9
20260831193724 88 71 5.0 14.0 0.00 0.00 0.00 62 1011.9
20260831193612 88 44 7.0 14.0 0.00 0.00 0.00 62 1011.9
20260831193458 88 61 9.0 14.0 0.00 0.00 0.00 64 1011.9
20260831193402 88 28 6.0 14.0 0.00 0.00 0.00 65 1011.9
20260831193306 88 26 3.0 10.0 0.00 0.00 0.00 63 1011.9
20260831193211 88 32 2.0 10.0 0.00 0.00 0.00 63 1011.9
20260831193100 88 137 2.0 10.0 0.00 0.00 0.00 60 1011.9
20260831193004 88 138 4.0 10.0 0.00 0.00 0.00 60 1012.0
20260831192909 88 90 6.0 10.0 0.00 0.00 0.00 62 1012.0
20260831192754 88 89 5.0 12.0 0.00 0.00 0.00 62 1011.9
20260831192719 88 91 4.0 12.0 0.00 0.00 0.00 61 1012.0
20260831192602 88 82 4.0 12.0 0.00 0.00 0.00 60 1012.0
20260831192507 88 36 5.0 12.0 0.00 0.00 0.00 62 1012.0
20260831192356 88 63 5.0 12.0 0.00 0.00 0.00 61 1011.9
20260831192305 88 60 5.0 12.0 0.00 0.00 0.00 61 1011.9
20260831192206 88 100 5.0 12.0 0.00 0.00 0.00 63 1011.9
20260831192111 88 105 6.0 12.0 0.00 0.00 0.00 60 1011.9
20260831191956 88 80 7.0 12.0 0.00 0.00 0.00 60 1011.9
20260831191905 88 94 7.0 11.0 0.00 0.00 0.00 61 1011.9
20260831191810 88 100 6.0 11.0 0.00 0.00 0.00 61 1011.9
20260831191656 88 87 4.0 10.0 0.00 0.00 0.00 64 1011.9
20260831191620 88 46 3.0 10.0 0.00 0.00 0.00 64 1011.9
20260831191458 88 80 6.0 10.0 0.00 0.00 0.00 64 1012.0
20260831191403 88 66 8.0 10.0 0.00 0.00 0.00 64 1012.0
20260831191311 88 84 6.0 10.0 0.00 0.00 0.00 62 1012.0
20260831191156 88 88 4.0 9.0 0.00 0.00 0.00 64 1011.9
20260831191101 88 32 5.0 9.0 0.00 0.00 0.00 64 1011.9
20260831191005 88 75 5.0 9.0 0.00 0.00 0.00 64 1011.9
20260831190910 88 360 5.0 10.0 0.00 0.00 0.00 65 1011.9
20260831190755 87 32 5.0 10.0 0.00 0.00 0.00 66 1011.9
20260831190704 87 42 4.0 10.0 0.00 0.00 0.00 65 1011.9
20260831190609 87 32 2.0 10.0 0.00 0.00 0.00 65 1011.9
20260831190454 87 49 2.0 10.0 0.00 0.00 0.00 68 1011.9
20260831190359 87 49 3.0 10.0 0.00 0.00 0.00 69 1012.0
20260831190303 87 43 3.0 10.0 0.00 0.00 0.00 68 1012.0
20260831190208 87 96 5.0 11.0 0.00 0.00 0.00 65 1012.0
20260831190117 87 97 7.0 11.0 0.00 0.00 0.00 64 1012.0
20260831185955 87 63 5.0 11.0 0.00 0.00 0.00 67 1011.9
20260831185900 87 48 4.0 11.0 0.00 0.00 0.00 66 1012.0
20260831185825 87 54 6.0 11.0 0.00 0.00 0.00 64 1011.9
20260831185708 86 59 6.0 11.0 0.00 0.00 0.00 66 1011.9
20260831185633 86 96 4.0 11.0 0.00 0.00 0.00 69 1012.0
20260831185500 86 54 5.0 11.0 0.00 0.00 0.00 67 1011.9
20260831185405 86 51 4.0 11.0 0.00 0.00 0.00 69 1011.9
20260831185310 86 45 3.0 10.0 0.00 0.00 0.00 70 1011.9
20260831185214 86 59 4.0 10.0 0.00 0.00 0.00 70 1011.9
20260831185118 86 57 5.0 10.0 0.00 0.00 0.00 69 1011.9
20260831185001 85 54 4.0 9.0 0.00 0.00 0.00 69 1011.9
20260831184907 85 36 2.0 8.0 0.00 0.00 0.00 70 1011.9
20260831184755 85 57 2.0 8.0 0.00 0.00 0.00 72 1012.0
20260831184720 85 57 3.0 9.0 0.00 0.00 0.00 72 1011.9
20260831184604 85 57 4.0 9.0 0.00 0.00 0.00 71 1011.9
20260831184509 85 102 3.0 9.0 0.00 0.00 0.00 71 1011.9
20260831184414 85 101 3.0 9.0 0.00 0.00 0.00 71 1012.0
20260831184339 85 93 4.0 9.0 0.00 0.00 0.00 71 1012.0
20260831184155 85 86 5.0 9.0 0.00 0.00 0.00 72 1011.9
20260831184104 85 111 4.0 9.0 0.00 0.00 0.00 73 1012.0
20260831184009 85 107 5.0 9.0 0.00 0.00 0.00 72 1012.0
20260831183854 85 84 5.0 9.0 0.00 0.00 0.00 72 1011.9
20260831183759 85 108 2.0 8.0 0.00 0.00 0.00 73 1011.9
20260831183702 84 65 2.0 8.0 0.00 0.00 0.00 73 1011.9
20260831183606 84 98 3.0 8.0 0.00 0.00 0.00 73 1011.9
20260831183455 84 99 4.0 8.0 0.00 0.00 0.00 72 1011.9
20260831183400 84 101 4.0 8.0 0.00 0.00 0.00 71 1011.8
20260831183306 85 128 2.0 8.0 0.00 0.00 0.00 73 1011.8
20260831183210 84 111 1.0 7.0 0.00 0.00 0.00 74 1011.8
20260831183115 85 110 2.0 7.0 0.00 0.00 0.00 73 1011.9
20260831182958 84 111 3.0 7.0 0.00 0.00 0.00 72 1011.8
20260831182906 84 110 4.0 7.0 0.00 0.00 0.00 73 1011.8
20260831182811 84 111 4.0 7.0 0.00 0.00 0.00 71 1012.0
20260831182716 85 133 4.0 7.0 0.00 0.00 0.00 71 1011.9
20260831182620 85 131 3.0 7.0 0.00 0.00 0.00 72 1012.0
20260831182503 84 102 3.0 7.0 0.00 0.00 0.00 73 1012.0
20260831182407 84 121 3.0 6.0 0.00 0.00 0.00 73 1012.0
20260831182333 84 70 3.0 6.0 0.00 0.00 0.00 74 1011.9
20260831182200 84 65 3.0 6.0 0.00 0.00 0.00 74 1012.0
20260831182104 84 75 4.0 6.0 0.00 0.00 0.00 73 1012.0
20260831182009 84 87 4.0 6.0 0.00 0.00 0.00 72 1012.0
20260831181855 84 78 5.0 7.0 0.00 0.00 0.00 74 1012.0
20260831181819 84 90 4.0 7.0 0.00 0.00 0.00 74 1012.0
20260831181657 84 130 2.0 6.0 0.00 0.00 0.00 73 1012.0
20260831181605 84 119 2.0 6.0 0.00 0.00 0.00 73 1012.0
20260831181530 84 107 2.0 6.0 0.00 0.00 0.00 74 1012.0
20260831181354 84 107 3.0 6.0 0.00 0.00 0.00 76 1012.1
20260831181258 84 105 3.0 6.0 0.00 0.00 0.00 76 1012.1
20260831181223 84 105 4.0 6.0 0.00 0.00 0.00 76 1012.1
20260831181126 84 80 4.0 6.0 0.00 0.00 0.00 76 1012.1
20260831181010 84 113 3.0 6.0 0.00 0.00 0.00 75 1012.1
20260831180859 84 99 3.0 6.0 0.00 0.00 0.00 75 1012.2
20260831180824 84 65 4.0 6.0 0.00 0.00 0.00 76 1012.2
20260831180708 84 108 3.0 6.0 0.00 0.00 0.00 73 1012.2
20260831180613 84 108 3.0 6.0 0.00 0.00 0.00 75 1012.1
20260831180518 84 76 4.0 8.0 0.00 0.00 0.00 75 1012.1
20260831180355 83 83 5.0 8.0 0.00 0.00 0.00 75 1012.1
20260831180301 83 59 4.0 8.0 0.00 0.00 0.00 76 1012.1
20260831180228 83 59 4.0 8.0 0.00 0.00 0.00 75 1012.2
20260831180111 83 46 4.0 8.0 0.00 0.00 0.00 76 1012.2
20260831175956 83 47 3.0 8.0 0.00 0.00 0.00 74 1012.2
20260831175901 83 114 4.0 8.0 0.00 0.00 0.00 74 1012.2
20260831175806 83 94 4.0 8.0 0.00 0.00 0.00 73 1012.2
20260831175712 83 97 3.0 8.0 0.00 0.00 0.00 74 1012.2
20260831175600 83 117 3.0 8.0 0.00 0.00 0.00 75 1012.2
20260831175505 83 118 3.0 8.0 0.00 0.00 0.00 74 1012.2
20260831175410 83 121 2.0 10.0 0.00 0.00 0.00 76 1012.2
20260831175314 83 80 3.0 10.0 0.00 0.00 0.00 75 1012.2
20260831175240 83 75 5.0 10.0 0.00 0.00 0.00 75 1012.2
20260831175057 83 67 5.0 10.0 0.00 0.00 0.00 75 1012.2
20260831175006 83 84 5.0 10.0 0.00 0.00 0.00 75 1012.2
20260831174911 83 91 4.0 10.0 0.00 0.00 0.00 75 1012.2
20260831174756 83 111 5.0 10.0 0.00 0.00 0.00 74 1012.2
20260831174701 83 58 6.0 10.0 0.00 0.00 0.00 74 1012.2
20260831174607 83 73 5.0 10.0 0.00 0.00 0.00 75 1012.2
20260831174511 83 60 4.0 10.0 0.00 0.00 0.00 76 1012.2
20260831174400 82 45 4.0 7.0 0.00 0.00 0.00 76 1012.2
20260831174302 82 79 4.0 7.0 0.00 0.00 0.00 76 1012.2
20260831174206 82 80 4.0 7.0 0.00 0.00 0.00 77 1012.2
20260831174111 82 81 4.0 7.0 0.00 0.00 0.00 78 1012.2
20260831174016 82 44 4.0 10.0 0.00 0.00 0.00 78 1012.2
20260831173859 82 32 4.0 10.0 0.00 0.00 0.00 78 1012.2
20260831173824 82 32 5.0 10.0 0.00 0.00 0.00 78 1012.2
20260831173727 82 75 5.0 10.0 0.00 0.00 0.00 79 1012.2
20260831173555 82 46 4.0 10.0 0.00 0.00 0.00 80 1012.2
20260831173519 81 86 4.0 10.0 0.00 0.00 0.00 80 1012.2
20260831173358 81 46 5.0 10.0 0.00 0.00 0.00 80 1012.2
20260831173302 81 120 6.0 10.0 0.00 0.00 0.00 79 1012.2
20260831173207 81 96 5.0 10.0 0.00 0.00 0.00 82 1012.2
20260831173056 81 78 4.0 9.0 0.00 0.00 0.00 80 1012.4
20260831173001 81 78 6.0 9.0 0.00 0.00 0.00 81 1012.3
20260831172906 81 106 5.0 9.0 0.00 0.00 0.00 80 1012.3
20260831172811 81 112 5.0 8.0 0.00 0.00 0.00 80 1012.2
20260831172717 81 107 6.0 8.0 0.00 0.00 0.00 81 1012.3
20260831172600 81 125 5.0 8.0 0.00 0.00 0.00 81 1012.3
20260831172504 81 113 4.0 8.0 0.00 0.00 0.00 81 1012.3
20260831172413 81 93 5.0 8.0 0.00 0.00 0.00 81 1012.3
20260831172319 81 113 6.0 8.0 0.00 0.00 0.00 80 1012.3
20260831172157 81 101 6.0 8.0 0.00 0.00 0.00 81 1012.3
20260831172102 81 83 5.0 8.0 0.00 0.00 0.00 81 1012.4
20260831172006 81 119 4.0 8.0 0.00 0.00 0.00 81 1012.3
20260831171854 81 88 4.0 7.0 0.00 0.00 0.00 82 1012.3
20260831171820 81 62 3.0 7.0 0.00 0.00 0.00 82 1012.3
20260831171657 81 69 4.0 7.0 0.00 0.00 0.00 82 1012.3
20260831171602 81 71 4.0 7.0 0.00 0.00 0.00 81 1012.2
20260831171507 81 58 3.0 8.0 0.00 0.00 0.00 82 1012.2
20260831171412 81 91 2.0 9.0 0.00 0.00 0.00 82 1012.3
20260831171258 81 115 3.0 9.0 0.00 0.00 0.00 82 1012.2
20260831171202 81 114 3.0 9.0 0.00 0.00 0.00 82 1012.3
20260831171107 81 90 3.0 9.0 0.00 0.00 0.00 82 1012.3
20260831171012 81 90 4.0 9.0 0.00 0.00 0.00 84 1012.3
20260831170857 81 68 4.0 9.0 0.00 0.00 0.00 83 1012.3
20260831170802 81 98 5.0 9.0 0.00 0.00 0.00 83 1012.3
20260831170708 81 90 5.0 9.0 0.00 0.00 0.00 83 1012.3
20260831170612 81 57 5.0 9.0 0.00 0.00 0.00 83 1012.3
20260831170517 81 73 4.0 8.0 0.00 0.00 0.00 82 1012.3
20260831170355 81 99 2.0 8.0 0.00 0.00 0.00 83 1012.2
20260831170319 81 122 2.0 8.0 0.00 0.00 0.00 83 1012.2
20260831170158 81 80 5.0 8.0 0.00 0.00 0.00 83 1012.3
20260831170106 81 74 5.0 8.0 0.00 0.00 0.00 84 1012.3
20260831170032 80 78 4.0 8.0 0.00 0.00 0.00 84 1012.3
20260831165854 80 71 4.0 8.0 0.00 0.00 0.00 84 1012.3
20260831165759 80 78 4.0 8.0 0.00 0.00 0.00 84 1012.3
20260831165704 80 113 4.0 8.0 0.00 0.00 0.00 84 1012.3
20260831165629 80 99 4.0 8.0 0.00 0.00 0.00 85 1012.4
20260831165510 80 76 4.0 8.0 0.00 0.00 0.00 85 1012.4
20260831165358 80 51 4.0 9.0 0.00 0.00 0.00 85 1012.3
20260831165305 80 89 4.0 9.0 0.00 0.00 0.00 85 1012.3
20260831165208 80 73 3.0 9.0 0.00 0.00 0.00 85 1012.3
20260831165113 80 78 4.0 11.0 0.00 0.00 0.00 84 1012.3
20260831164958 80 78 6.0 11.0 0.00 0.00 0.00 84 1012.3
20260831164903 80 95 6.0 11.0 0.00 0.00 0.00 84 1012.3
20260831164812 80 90 5.0 11.0 0.00 0.00 0.00 85 1012.3
20260831164718 80 81 5.0 11.0 0.00 0.00 0.00 85 1012.3
20260831164555 80 69 4.0 11.0 0.00 0.00 0.00 85 1012.3
20260831164459 80 51 4.0 11.0 0.00 0.00 0.00 85 1012.3
20260831164424 80 110 6.0 11.0 0.00 0.00 0.00 84 1012.3
20260831164308 80 122 7.0 11.0 0.00 0.00 0.00 84 1012.3
20260831164157 80 121 7.0 11.0 0.00 0.00 0.00 84 1012.3
20260831164102 80 113 7.0 11.0 0.00 0.00 0.00 84 1012.3
20260831164007 80 87 7.0 10.0 0.00 0.00 0.00 84 1012.3
20260831163912 80 86 7.0 10.0 0.00 0.00 0.00 84 1012.2
20260831163838 80 80 6.0 10.0 0.00 0.00 0.00 84 1012.1
20260831163655 80 85 6.0 9.0 0.00 0.00 0.00 84 1012.1
20260831163600 80 109 7.0 9.0 0.00 0.00 0.00 84 1012.1
20260831163530 80 98 6.0 9.0 0.00 0.00 0.00 84 1012.1
20260831163412 80 119 4.0 8.0 0.00 0.00 0.00 84 1012.1
20260831163338 80 91 4.0 7.0 0.00 0.00 0.00 84 1012.1
20260831163155 80 77 4.0 7.0 0.00 0.00 0.00 84 1012.2
20260831163100 80 97 4.0 9.0 0.00 0.00 0.00 83 1012.2
20260831163025 81 108 4.0 9.0 0.00 0.00 0.00 84 1012.2
20260831162910 81 93 3.0 9.0 0.00 0.00 0.00 84 1012.2
20260831162818 81 57 4.0 9.0 0.00 0.00 0.00 84 1012.3
20260831162702 81 80 4.0 9.0 0.00 0.00 0.00 83 1012.2
20260831162607 81 108 4.0 9.0 0.00 0.00 0.00 83 1012.2
20260831162511 81 104 5.0 9.0 0.00 0.00 0.00 83 1012.2
20260831162417 81 99 5.0 9.0 0.00 0.00 0.00 83 1012.2
20260831162255 81 120 6.0 9.0 0.00 0.00 0.00 84 1012.2
20260831162204 81 88 5.0 9.0 0.00 0.00 0.00 84 1012.3
20260831162013 81 67 3.0 10.0 0.00 0.00 0.00 85 1012.1
20260831161858 81 59 4.0 10.0 0.00 0.00 0.00 84 1012.1
20260831161803 81 54 5.0 10.0 0.00 0.00 0.00 84 1012.2
20260831161708 81 73 4.0 10.0 0.00 0.00 0.00 84 1012.2
20260831161557 81 78 5.0 10.0 0.00 0.00 0.00 84 1012.2
20260831161502 81 45 5.0 10.0 0.00 0.00 0.00 84 1012.2
20260831161407 81 90 5.0 10.0 0.00 0.00 0.00 85 1012.2
20260831161332 81 119 5.0 9.0 0.00 0.00 0.00 85 1012.1
20260831161156 81 96 5.0 9.0 0.00 0.00 0.00 85 1012.1
20260831161100 81 73 3.0 9.0 0.00 0.00 0.00 85 1012.2
20260831161009 81 88 2.0 8.0 0.00 0.00 0.00 85 1012.2
20260831160854 80 76 4.0 8.0 0.00 0.00 0.00 85 1012.1
20260831160759 80 74 5.0 8.0 0.00 0.00 0.00 85 1012.2
20260831160705 80 64 6.0 8.0 0.00 0.00 0.00 84 1012.2
20260831160609 80 83 6.0 8.0 0.00 0.00 0.00 84 1012.2
20260831160454 81 98 5.0 8.0 0.00 0.00 0.00 86 1012.1
20260831160423 80 85 4.0 8.0 0.00 0.00 0.00 86 1012.2
20260831160306 80 113 3.0 8.0 0.00 0.00 0.00 86 1012.1
20260831160210 80 64 3.0 8.0 0.00 0.00 0.00 86 1012.1
20260831160110 80 65 3.0 8.0 0.00 0.00 0.00 86 1012.1
20260831160015 80 74 5.0 9.0 0.00 0.00 0.00 86 1012.0
20260831155919 80 68 5.0 9.0 0.00 0.00 0.00 85 1012.0
20260831155757 80 80 4.0 9.0 0.00 0.00 0.00 85 1011.9
20260831155706 80 105 3.0 9.0 0.00 0.00 0.00 85 1011.9
20260831155611 80 114 4.0 9.0 0.00 0.00 0.00 85 1012.0
20260831155456 80 71 4.0 9.0 0.00 0.00 0.00 85 1011.9
20260831155420 80 63 5.0 9.0 0.00 0.00 0.00 85 1011.9
20260831155257 80 76 5.0 9.0 0.00 0.00 0.00 86 1011.9
20260831155202 80 74 4.0 9.0 0.00 0.00 0.00 86 1011.9
20260831155111 80 86 4.0 9.0 0.00 0.00 0.00 85 1011.9
20260831154956 80 74 6.0 9.0 0.00 0.00 0.00 85 1011.9
20260831154901 80 84 6.0 10.0 0.00 0.00 0.00 85 1011.9
20260831154806 80 79 6.0 10.0 0.00 0.00 0.00 85 1011.9
20260831154711 80 98 6.0 10.0 0.00 0.00 0.00 84 1012.0
20260831154600 80 63 5.0 10.0 0.00 0.00 0.00 84 1011.9
20260831154525 80 69 4.0 10.0 0.00 0.00 0.00 84 1011.9
20260831154408 81 73 4.0 10.0 0.00 0.00 0.00 85 1011.9
20260831154313 81 61 5.0 10.0 0.00 0.00 0.00 84 1011.9
20260831154157 81 55 5.0 10.0 0.00 0.00 0.00 84 1011.8
20260831154102 81 66 5.0 10.0 0.00 0.00 0.00 84 1011.8
20260831154007 81 51 5.0 12.0 0.00 0.00 0.00 84 1011.8
20260831153854 81 80 5.0 12.0 0.00 0.00 0.00 84 1011.7
20260831153759 81 40 6.0 12.0 0.00 0.00 0.00 84 1011.7
20260831153704 81 61 5.0 12.0 0.00 0.00 0.00 85 1011.7
20260831153609 81 85 4.0 12.0 0.00 0.00 0.00 85 1011.7
20260831153532 81 35 4.0 12.0 0.00 0.00 0.00 85 1011.7
20260831153416 81 48 6.0 12.0 0.00 0.00 0.00 85 1011.7
20260831153304 81 49 7.0 12.0 0.00 0.00 0.00 85 1011.6
20260831153209 81 75 8.0 12.0 0.00 0.00 0.00 84 1011.6
20260831153054 81 83 6.0 10.0 0.00 0.00 0.00 84 1011.7
20260831152959 81 80 4.0 9.0 0.00 0.00 0.00 85 1011.7
20260831152903 81 65 2.0 6.0 0.00 0.00 0.00 85 1011.6
20260831152828 81 19 2.0 6.0 0.00 0.00 0.00 86 1011.6
20260831152656 81 27 3.0 8.0 0.00 0.00 0.00 85 1011.5
20260831152600 81 28 4.0 8.0 0.00 0.00 0.00 85 1011.5
20260831152525 81 90 4.0 8.0 0.00 0.00 0.00 86 1011.6
20260831152409 81 60 4.0 8.0 0.00 0.00 0.00 86 1011.6
20260831152314 81 57 5.0 9.0 0.00 0.00 0.00 86 1011.5
20260831152239 81 35 5.0 9.0 0.00 0.00 0.00 85 1011.5
20260831152055 81 63 5.0 9.0 0.00 0.00 0.00 85 1011.3
20260831152004 81 57 6.0 9.0 0.00 0.00 0.00 85 1011.3
20260831151909 81 90 6.0 9.0 0.00 0.00 0.00 85 1011.3
20260831151813 81 85 5.0 9.0 0.00 0.00 0.00 85 1011.3
20260831151738 81 99 5.0 9.0 0.00 0.00 0.00 86 1011.3
20260831151555 81 96 6.0 9.0 0.00 0.00 0.00 86 1011.3
20260831151459 81 96 6.0 9.0 0.00 0.00 0.00 86 1011.4
20260831151404 81 81 6.0 9.0 0.00 0.00 0.00 86 1011.3
20260831151312 81 73 6.0 9.0 0.00 0.00 0.00 85 1011.3
20260831151217 81 79 5.0 9.0 0.00 0.00 0.00 86 1011.2
20260831151055 81 82 4.0 9.0 0.00 0.00 0.00 88 1011.2
20260831151019 81 51 4.0 6.0 0.00 0.00 0.00 88 1011.1
20260831150902 80 49 5.0 6.0 0.00 0.00 0.00 87 1011.2
20260831150807 80 42 4.0 6.0 0.00 0.00 0.00 88 1011.2
20260831150732 80 64 4.0 6.0 0.00 0.00 0.00 87 1011.1
20260831150600 80 75 3.0 7.0 0.00 0.00 0.00 87 1011.0
20260831150525 80 63 3.0 7.0 0.00 0.00 0.00 87 1011.0
20260831150429 80 54 3.0 9.0 0.00 0.00 0.00 87 1011.0
20260831150313 80 90 5.0 9.0 0.00 0.00 0.00 86 1011.0
20260831150158 80 107 5.0 9.0 0.00 0.00 0.00 86 1011.0
20260831150027 80 71 5.0 9.0 0.00 0.00 0.00 87 1010.9
20260831145855 80 89 4.0 9.0 0.00 0.00 0.00 88 1010.9
20260831145759 80 71 4.0 9.0 0.00 0.00 0.00 88 1011.0
20260831145704 80 51 5.0 9.0 0.00 0.00 0.00 88 1010.9
20260831145610 80 63 4.0 9.0 0.00 0.00 0.00 88 1010.9
20260831145514 80 46 3.0 8.0 0.00 0.00 0.00 88 1010.9
20260831145418 80 34 4.0 8.0 0.00 0.00 0.00 88 1010.9
20260831145306 80 59 4.0 8.0 0.00 0.00 0.00 87 1010.9
20260831145202 79 59 3.0 10.0 0.00 0.00 0.00 87 1011.0
20260831145107 79 87 3.0 10.0 0.00 0.00 0.00 87 1011.0
20260831145032 79 87 4.0 10.0 0.00 0.00 0.00 87 1010.9
20260831144856 79 68 4.0 10.0 0.00 0.00 0.00 87 1010.9
20260831144801 79 82 4.0 10.0 0.00 0.00 0.00 87 1010.9
20260831144706 79 86 5.0 10.0 0.00 0.00 0.00 87 1010.9
20260831144615 79 66 4.0 10.0 0.00 0.00 0.00 88 1010.9
20260831144519 79 74 4.0 10.0 0.00 0.00 0.00 87 1010.9
20260831144356 79 55 5.0 10.0 0.00 0.00 0.00 87 1010.7
20260831144321 80 30 4.0 10.0 0.00 0.00 0.00 87 1010.7
20260831144225 80 79 3.0 8.0 0.00 0.00 0.00 88 1010.8
20260831144128 80 58 3.0 8.0 0.00 0.00 0.00 88 1010.8
20260831144011 80 53 4.0 8.0 0.00 0.00 0.00 88 1010.7
20260831143916 79 328 4.0 8.0 0.00 0.00 0.00 88 1010.7
20260831143804 79 355 2.0 7.0 0.00 0.00 0.00 88 1010.7
20260831143710 79 39 2.0 7.0 0.00 0.00 0.00 88 1010.7
20260831143554 79 39 3.0 9.0 0.00 0.00 0.00 88 1010.6
20260831143459 79 15 3.0 9.0 0.00 0.00 0.00 88 1010.6
20260831143404 79 19 5.0 9.0 0.00 0.00 0.00 88 1010.7
20260831143309 79 23 5.0 9.0 0.00 0.00 0.00 88 1010.7
20260831143158 79 64 4.0 9.0 0.00 0.00 0.00 87 1010.6
20260831143122 79 72 4.0 9.0 0.00 0.00 0.00 88 1010.6
20260831143027 79 64 4.0 9.0 0.00 0.00 0.00 88 1010.6
20260831142909 79 74 5.0 9.0 0.00 0.00 0.00 87 1010.6
20260831142813 79 45 5.0 9.0 0.00 0.00 0.00 87 1010.6
20260831142658 79 68 5.0 9.0 0.00 0.00 0.00 87 1010.5
20260831142607 79 11 5.0 9.0 0.00 0.00 0.00 87 1010.5
20260831142511 79 35 4.0 12.0 0.00 0.00 0.00 87 1010.6
20260831142356 79 41 4.0 12.0 0.00 0.00 0.00 87 1010.6
20260831142301 79 28 5.0 12.0 0.00 0.00 0.00 88 1010.6
20260831142206 79 69 4.0 12.0 0.00 0.00 0.00 88 1010.6
20260831142111 79 54 5.0 12.0 0.00 0.00 0.00 88 1010.6
20260831141959 79 46 5.0 12.0 0.00 0.00 0.00 88 1010.5
20260831141904 79 345 4.0 12.0 0.00 0.00 0.00 89 1010.5
20260831141809 79 38 6.0 12.0 0.00 0.00 0.00 89 1010.5
20260831141714 79 15 6.0 12.0 0.00 0.00 0.00 89 1010.5
20260831141558 79 9 3.0 6.0 0.00 0.00 0.00 90 1010.4
20260831141503 79 44 3.0 8.0 0.00 0.00 0.00 91 1010.4
20260831141412 79 44 3.0 8.0 0.00 0.00 0.00 90 1010.4
20260831141317 79 31 3.0 8.0 0.00 0.00 0.00 91 1010.4
20260831141200 79 329 3.0 8.0 0.00 0.00 0.00 91 1010.3
20260831141125 78 62 3.0 8.0 0.00 0.00 0.00 91 1010.2
20260831141009 78 38 3.0 8.0 0.00 0.00 0.00 91 1010.2
20260831140854 78 35 3.0 8.0 0.00 0.00 0.00 91 1010.3
20260831140803 78 54 4.0 8.0 0.00 0.00 0.00 91 1010.3
20260831140708 78 34 4.0 8.0 0.00 0.00 0.00 91 1010.3
20260831140613 78 29 3.0 8.0 0.00 0.00 0.00 91 1010.2
20260831140518 78 31 3.0 8.0 0.00 0.00 0.00 91 1010.3
20260831140401 78 29 4.0 8.0 0.00 0.00 0.00 91 1010.2
20260831140306 77 23 5.0 8.0 0.00 0.00 0.00 91 1010.2
20260831140155 77 15 4.0 8.0 0.00 0.00 0.00 91 1010.1
20260831140120 77 34 4.0 8.0 0.00 0.00 0.00 91 1010.1
20260831140004 77 42 4.0 8.0 0.00 0.00 0.00 92 1010.1
20260831135909 77 51 3.0 6.0 0.00 0.00 0.00 92 1010.1
20260831135834 77 53 3.0 6.0 0.00 0.00 0.00 92 1010.1
20260831135717 77 58 3.0 6.0 0.00 0.00 0.00 92 1010.1
20260831135555 77 14 3.0 6.0 0.00 0.00 0.00 92 1010.1
20260831135520 77 39 4.0 6.0 0.00 0.00 0.00 92 1010.1
20260831135428 77 355 4.0 9.0 0.00 0.00 0.00 92 1010.1
20260831135312 77 360 4.0 9.0 0.00 0.00 0.00 93 1010.2
20260831135217 77 360 3.0 9.0 0.00 0.00 0.00 93 1010.1
20260831135059 77 16 3.0 9.0 0.00 0.00 0.00 93 1010.1
20260831135004 77 360 3.0 9.0 0.00 0.00 0.00 93 1010.0
20260831134910 77 37 3.0 9.0 0.00 0.00 0.00 94 1010.0
20260831134757 77 29 2.0 9.0 0.00 0.00 0.00 94 1010.0
20260831134702 77 23 4.0 9.0 0.00 0.00 0.00 94 1010.1
20260831134607 76 24 6.0 9.0 0.00 0.00 0.00 94 1010.1
20260831134532 76 11 6.0 9.0 0.00 0.00 0.00 95 1010.1
20260831134356 76 10 4.0 8.0 0.00 0.00 0.00 95 1010.1
20260831134300 76 5 4.0 9.0 0.00 0.00 0.00 95 1010.1
20260831134225 76 18 4.0 9.0 0.00 0.00 0.00 95 1010.0
20260831134113 76 355 5.0 9.0 0.00 0.00 0.00 95 1010.0
20260831133958 76 21 4.0 9.0 0.00 0.00 0.00 96 1010.0
20260831133902 76 37 3.0 9.0 0.00 0.00 0.00 95 1010.0
20260831133807 76 5 4.0 9.0 0.00 0.00 0.00 95 1010.0
20260831133712 76 30 5.0 9.0 0.00 0.00 0.00 96 1010.1
20260831133558 76 345 5.0 9.0 0.00 0.00 0.00 96 1010.0
20260831133525 75 360 5.0 9.0 0.00 0.00 0.00 96 1010.0
20260831133408 75 355 5.0 9.0 0.00 0.00 0.00 96 1010.0
20260831133313 75 333 4.0 6.0 0.00 0.00 0.00 97 1009.9
20260831133157 75 350 4.0 6.0 0.00 0.00 0.00 97 1010.0
20260831133122 75 355 3.0 6.0 0.00 0.00 0.00 97 1010.0
20260831133025 75 38 3.0 6.0 0.00 0.00 0.00 97 1010.0
20260831132908 75 5 3.0 5.0 0.00 0.00 0.00 97 1010.0
20260831132817 75 5 2.0 5.0 0.00 0.00 0.00 97 1009.9
20260831132721 75 360 2.0 5.0 0.00 0.00 0.00 97 1009.8
20260831132605 75 5 2.0 5.0 0.00 0.00 0.00 97 1009.8
20260831132529 75 5 2.0 5.0 0.00 0.00 0.00 97 1009.8
20260831132413 75 19 3.0 5.0 0.00 0.00 0.00 97 1009.8
20260831132338 75 355 4.0 5.0 0.00 0.00 0.00 97 1009.8
20260831132155 74 343 4.0 5.0 0.00 0.00 0.00 97 1009.8
20260831132059 74 355 3.0 5.0 0.00 0.00 0.00 97 1009.8
20260831132008 74 355 2.0 5.0 0.00 0.00 0.00 97 1009.8
20260831131933 74 338 2.0 5.0 0.00 0.00 0.00 97 1009.8
20260831131757 74 5 4.0 5.0 0.00 0.00 0.00 97 1009.9
20260831131702 74 346 4.0 8.0 0.00 0.00 0.00 98 1009.9
20260831131607 74 338 3.0 8.0 0.00 0.00 0.00 98 1009.9
20260831131512 74 5 2.0 8.0 0.00 0.00 0.00 98 1009.9
20260831131421 74 350 2.0 8.0 0.00 0.00 0.00 98 1009.9
20260831131305 74 348 2.0 8.0 0.00 0.00 0.00 98 1009.9
20260831131230 74 350 2.0 8.0 0.00 0.00 0.00 98 1009.9
20260831131113 74 350 3.0 8.0 0.00 0.00 0.00 98 1009.9
20260831130958 73 348 4.0 8.0 0.00 0.00 0.00 98 1009.8
20260831130903 73 348 4.0 8.0 0.00 0.00 0.00 98 1009.8
20260831130828 73 327 3.0 6.0 0.00 0.00 0.00 98 1009.8
20260831130656 73 22 4.0 6.0 0.00 0.00 0.00 98 1009.9
20260831130601 73 346 4.0 6.0 0.00 0.00 0.00 98 1009.8
20260831130505 73 360 3.0 5.0 0.00 0.00 0.00 98 1009.9
20260831130410 73 5 3.0 5.0 0.00 0.00 0.00 98 1009.9
20260831130315 73 355 2.0 5.0 0.00 0.00 0.00 98 1009.9
20260831130219 73 360 2.0 5.0 0.00 0.00 0.00 98 1009.9
20260831130123 73 355 3.0 5.0 0.00 0.00 0.00 98 1009.8
20260831130011 73 355 3.0 5.0 0.00 0.00 0.00 98 1009.8
20260831125856 73 342 3.0 5.0 0.00 0.00 0.00 98 1009.8
20260831125801 72 346 3.0 5.0 0.00 0.00 0.00 98 1009.8
20260831125706 72 355 2.0 5.0 0.00 0.00 0.00 97 1009.8
20260831125630 72 360 2.0 4.0 0.00 0.00 0.00 97 1009.7
20260831125513 72 360 1.0 4.0 0.00 0.00 0.00 97 1009.8
20260831125402 72 322 2.0 4.0 0.00 0.00 0.00 97 1009.8
20260831125307 72 296 3.0 4.0 0.00 0.00 0.00 97 1009.8
20260831125212 72 296 3.0 4.0 0.00 0.00 0.00 97 1009.8
20260831125057 72 281 1.0 4.0 0.00 0.00 0.00 98 1009.7
20260831125002 72 288 1.0 4.0 0.00 0.00 0.00 98 1009.8
20260831124907 72 288 2.0 4.0 0.00 0.00 0.00 98 1009.8
20260831124755 72 288 2.0 4.0 0.00 0.00 0.00 98 1009.8
20260831124700 72 286 2.0 4.0 0.00 0.00 0.00 97 1009.8
20260831124605 72 255 2.0 4.0 0.00 0.00 0.00 97 1009.8
20260831124509 72 255 2.0 4.0 0.00 0.00 0.00 97 1009.8
20260831124354 72 254 1.0 4.0 0.00 0.00 0.00 97 1009.8
20260831124300 71 254 2.0 4.0 0.00 0.00 0.00 97 1009.7
20260831124207 71 254 2.0 4.0 0.00 0.00 0.00 97 1009.7
20260831124112 71 254 2.0 4.0 0.00 0.00 0.00 97 1009.7
20260831124017 71 254 1.0 4.0 0.00 0.00 0.00 97 1009.7
20260831123855 71 254 2.0 4.0 0.00 0.00 0.00 97 1009.7
20260831123800 71 254 2.0 4.0 0.00 0.00 0.00 97 1009.6
20260831123704 71 229 2.0 3.0 0.00 0.00 0.00 97 1009.7
20260831123613 71 229 2.0 3.0 0.00 0.00 0.00 97 1009.7
20260831123538 71 229 1.0 3.0 0.00 0.00 0.00 97 1009.7
20260831123355 71 229 0.0 3.0 0.00 0.00 0.00 97 1009.7
20260831123300 71 229 1.0 3.0 0.00 0.00 0.00 97 1009.6
20260831123204 71 229 2.0 3.0 0.00 0.00 0.00 97 1009.5
20260831123109 71 229 2.0 3.0 0.00 0.00 0.00 97 1009.5
20260831122958 71 229 2.0 3.0 0.00 0.00 0.00 97 1009.4
20260831122904 71 229 2.0 3.0 0.00 0.00 0.00 97 1009.4
20260831122828 71 229 2.0 3.0 0.00 0.00 0.00 97 1009.4
20260831122712 70 229 1.0 4.0 0.00 0.00 0.00 97 1009.4
20260831122617 70 229 1.0 4.0 0.00 0.00 0.00 97 1009.4
20260831122455 70 229 2.0 4.0 0.00 0.00 0.00 97 1009.4
20260831122404 70 229 2.0 4.0 0.00 0.00 0.00 97 1009.3
20260831122308 70 229 2.0 4.0 0.00 0.00 0.00 97 1009.3
20260831122213 70 229 2.0 4.0 0.00 0.00 0.00 97 1009.3
20260831122058 70 229 2.0 4.0 0.00 0.00 0.00 97 1009.4
20260831122003 70 229 2.0 4.0 0.00 0.00 0.00 97 1009.4
20260831121908 70 229 2.0 4.0 0.00 0.00 0.00 96 1009.4
20260831121757 69 229 2.0 3.0 0.00 0.00 0.00 96 1009.3
20260831121702 69 229 2.0 3.0 0.00 0.00 0.00 97 1009.3
20260831121607 69 229 2.0 3.0 0.00 0.00 0.00 97 1009.3
20260831121512 69 229 2.0 3.0 0.00 0.00 0.00 97 1009.3
20260831121417 69 229 2.0 3.0 0.00 0.00 0.00 97 1009.3
20260831121300 69 229 1.0 3.0 0.00 0.00 0.00 97 1009.3
20260831121208 69 229 1.0 3.0 0.00 0.00 0.00 97 1009.3
20260831121113 69 229 1.0 3.0 0.00 0.00 0.00 97 1009.2
20260831120958 69 229 1.0 3.0 0.00 0.00 0.00 96 1009.3
20260831120903 68 229 1.0 3.0 0.00 0.00 0.00 96 1009.2
20260831120807 68 229 1.0 3.0 0.00 0.00 0.00 96 1009.2
20260831120710 68 229 1.0 3.0 0.00 0.00 0.00 96 1009.1
20260831120559 68 229 2.0 3.0 0.00 0.00 0.00 96 1009.1
20260831120504 68 229 2.0 3.0 0.00 0.00 0.00 96 1009.1
20260831120409 68 229 2.0 3.0 0.00 0.00 0.00 96 1009.1
20260831120254 68 229 2.0 3.0 0.00 0.00 0.00 96 1009.1
20260831120159 68 229 1.0 3.0 0.00 0.00 0.00 96 1009.1
20260831120103 68 229 1.0 3.0 0.00 0.00 0.00 96 1009.2
20260831120012 68 229 1.0 3.0 0.00 0.00 0.00 95 1009.2
20260831115856 68 229 1.0 3.0 0.00 0.00 0.00 95 1009.1
20260831115801 68 229 1.0 3.0 0.00 0.00 0.00 95 1009.1
20260831115706 68 229 1.0 3.0 0.00 0.00 0.00 95 1009.1
20260831115631 68 229 1.0 3.0 0.00 0.00 0.00 95 1009.2
20260831115455 68 229 2.0 3.0 0.00 0.00 0.00 95 1009.1
20260831115404 68 229 1.0 2.0 0.00 0.00 0.00 95 1009.1
20260831115309 68 229 1.0 2.0 0.00 0.00 0.00 95 1009.1
20260831115154 68 229 1.0 2.0 0.00 0.00 0.00 95 1009.2
20260831115056 68 229 2.0 2.0 0.00 0.00 0.00 95 1009.2
20260831115001 68 229 2.0 2.0 0.00 0.00 0.00 95 1009.1
20260831114906 68 229 1.0 2.0 0.00 0.00 0.00 95 1009.1
20260831114755 68 229 0.0 2.0 0.00 0.00 0.00 95 1009.0
20260831114700 68 229 0.0 2.0 0.00 0.00 0.00 95 1009.0
20260831114625 68 229 0.0 2.0 0.00 0.00 0.00 95 1009.0
20260831114508 68 229 0.0 2.0 0.00 0.00 0.00 95 1009.0
20260831114413 68 229 0.0 2.0 0.00 0.00 0.00 95 1008.9
20260831114258 68 229 0.0 2.0 0.00 0.00 0.00 95 1008.9
20260831114202 68 229 0.0 2.0 0.00 0.00 0.00 95 1008.9
20260831114111 68 229 1.0 2.0 0.00 0.00 0.00 95 1008.9
20260831113956 68 229 1.0 2.0 0.00 0.00 0.00 95 1008.9
20260831113901 68 229 0.0 1.0 0.00 0.00 0.00 95 1008.9
20260831113806 68 229 0.0 0.0 0.00 0.00 0.00 95 1008.8
20260831113710 68 229 0.0 0.0 0.00 0.00 0.00 95 1008.8
20260831113615 68 229 0.0 0.0 0.00 0.00 0.00 95 1008.8
20260831113503 68 229 0.0 0.0 0.00 0.00 0.00 95 1008.8
20260831113408 68 229 0.0 0.0 0.00 0.00 0.00 95 1008.8
20260831113313 68 229 0.0 0.0 0.00 0.00 0.00 95 1008.8
20260831113158 69 229 0.0 0.0 0.00 0.00 0.00 95 1008.8
20260831113102 69 229 0.0 0.0 0.00 0.00 0.00 95 1008.9
20260831113007 69 229 0.0 0.0 0.00 0.00 0.00 95 1008.9
20260831112856 69 229 0.0 0.0 0.00 0.00 0.00 95 1008.8
20260831112801 69 229 0.0 0.0 0.00 0.00 0.00 95 1008.7
20260831112706 69 229 0.0 0.0 0.00 0.00 0.00 95 1008.7
20260831112610 69 229 0.0 0.0 0.00 0.00 0.00 95 1008.8
20260831112455 69 229 0.0 0.0 0.00 0.00 0.00 95 1008.8
20260831112419 69 229 0.0 0.0 0.00 0.00 0.00 95 1008.8
20260831112307 69 229 0.0 0.0 0.00 0.00 0.00 95 1008.8
20260831112212 69 229 0.0 0.0 0.00 0.00 0.00 95 1008.8
20260831112134 69 229 0.0 0.0 0.00 0.00 0.00 95 1008.7
20260831111958 69 229 0.0 0.0 0.00 0.00 0.00 95 1008.7
20260831111903 69 229 0.0 0.0 0.00 0.00 0.00 95 1008.8
20260831111808 69 229 0.0 0.0 0.00 0.00 0.00 95 1008.8
20260831111657 69 229 0.0 0.0 0.00 0.00 0.00 95 1008.8
20260831111601 69 229 0.0 0.0 0.00 0.00 0.00 95 1008.8
20260831111506 69 229 0.0 0.0 0.00 0.00 0.00 95 1008.8
20260831111411 69 229 0.0 0.0 0.00 0.00 0.00 95 1008.8
20260831111256 69 229 0.0 0.0 0.00 0.00 0.00 95 1008.8
20260831111201 69 229 0.0 0.0 0.00 0.00 0.00 95 1008.8
20260831111109 69 229 0.0 0.0 0.00 0.00 0.00 95 1008.8
20260831111011 70 229 0.0 1.0 0.00 0.00 0.00 95 1008.8
20260831110855 70 229 0.0 1.0 0.00 0.00 0.00 95 1008.8
20260831110800 70 229 0.0 1.0 0.00 0.00 0.00 95 1008.8
20260831110705 70 229 0.0 1.0 0.00 0.00 0.00 95 1008.7
20260831110629 70 229 0.0 1.0 0.00 0.00 0.00 95 1008.7
20260831110457 70 229 0.0 1.0 0.00 0.00 0.00 95 1008.7
20260831110401 70 229 0.0 1.0 0.00 0.00 0.00 95 1008.7
20260831110306 70 229 0.0 1.0 0.00 0.00 0.00 95 1008.7
20260831110211 70 229 0.0 1.0 0.00 0.00 0.00 95 1008.6
20260831110117 70 229 0.0 1.0 0.00 0.00 0.00 95 1008.6
20260831105954 70 229 0.0 1.0 0.00 0.00 0.00 95 1008.6
20260831105903 70 229 0.0 1.0 0.00 0.00 0.00 95 1008.6
20260831105808 70 229 0.0 1.0 0.00 0.00 0.00 95 1008.6
20260831105713 70 229 0.0 1.0 0.00 0.00 0.00 95 1008.5
20260831105618 70 229 0.0 1.0 0.00 0.00 0.00 95 1008.6
20260831105456 70 229 0.0 1.0 0.00 0.00 0.00 95 1008.6
20260831105401 70 229 0.0 1.0 0.00 0.00 0.00 95 1008.6
20260831105310 71 229 0.0 2.0 0.00 0.00 0.00 95 1008.6
20260831105155 70 229 0.0 3.0 0.00 0.00 0.00 95 1008.5
20260831105120 71 229 1.0 3.0 0.00 0.00 0.00 95 1008.6
20260831105003 70 229 0.0 3.0 0.00 0.00 0.00 95 1008.6
20260831104928 71 229 0.0 3.0 0.00 0.00 0.00 95 1008.6
20260831104813 71 229 0.0 3.0 0.00 0.00 0.00 95 1008.6
20260831104717 71 229 0.0 3.0 0.00 0.00 0.00 95 1008.6
20260831104605 71 229 1.0 3.0 0.00 0.00 0.00 95 1008.6
20260831104510 71 229 1.0 3.0 0.00 0.00 0.00 95 1008.6
20260831104354 71 229 1.0 3.0 0.00 0.00 0.00 95 1008.5
20260831104259 71 229 1.0 3.0 0.00 0.00 0.00 95 1008.6
20260831104204 71 229 1.0 3.0 0.00 0.00 0.00 95 1008.6
20260831104128 71 229 1.0 3.0 0.00 0.00 0.00 95 1008.6
20260831104012 71 229 2.0 3.0 0.00 0.00 0.00 95 1008.6
20260831103900 71 229 2.0 3.0 0.00 0.00 0.00 95 1008.5
20260831103805 71 229 2.0 3.0 0.00 0.00 0.00 95 1008.6
20260831103729 71 229 1.0 3.0 0.00 0.00 0.00 95 1008.6
20260831103613 71 229 1.0 3.0 0.00 0.00 0.00 95 1008.5
20260831103518 71 229 1.0 3.0 0.00 0.00 0.00 95 1008.6
20260831103422 71 229 1.0 3.0 0.00 0.00 0.00 95 1008.5
20260831103306 71 229 1.0 3.0 0.00 0.00 0.00 95 1008.5
20260831103155 71 229 1.0 3.0 0.00 0.00 0.00 95 1008.7
20260831103120 71 229 1.0 3.0 0.00 0.00 0.00 95 1008.6
20260831103004 71 229 2.0 3.0 0.00 0.00 0.00 95 1008.7
20260831102907 71 229 2.0 3.0 0.00 0.00 0.00 95 1008.7
20260831102812 71 229 1.0 3.0 0.00 0.00 0.00 95 1008.7
20260831102657 71 229 1.0 3.0 0.00 0.00 0.00 95 1008.7
20260831102621 71 229 1.0 3.0 0.00 0.00 0.00 95 1008.7
20260831102525 71 229 2.0 3.0 0.00 0.00 0.00 95 1008.6
20260831102413 71 229 2.0 3.0 0.00 0.00 0.00 95 1008.6
20260831102318 71 229 2.0 4.0 0.00 0.00 0.00 95 1008.6
20260831102156 71 229 2.0 4.0 0.00 0.00 0.00 95 1008.6
20260831102120 71 229 2.0 4.0 0.00 0.00 0.00 95 1008.6
20260831102002 71 228 1.0 4.0 0.00 0.00 0.00 95 1008.6
20260831101907 71 228 1.0 4.0 0.00 0.00 0.00 95 1008.6
20260831101756 71 228 2.0 4.0 0.00 0.00 0.00 95 1008.6
20260831101720 71 228 2.0 4.0 0.00 0.00 0.00 95 1008.6
20260831101558 71 228 3.0 4.0 0.00 0.00 0.00 95 1008.5
20260831101503 71 225 3.0 4.0 0.00 0.00 0.00 95 1008.5
20260831101408 71 225 2.0 4.0 0.00 0.00 0.00 95 1008.5
20260831101313 71 225 1.0 4.0 0.00 0.00 0.00 95 1008.4
20260831101201 71 225 1.0 4.0 0.00 0.00 0.00 95 1008.6
20260831101106 71 225 0.0 4.0 0.00 0.00 0.00 95 1008.6
20260831101031 71 225 1.0 4.0 0.00 0.00 0.00 95 1008.5
20260831100855 71 225 2.0 4.0 0.00 0.00 0.00 95 1008.4
20260831100800 71 225 2.0 4.0 0.00 0.00 0.00 95 1008.4
20260831100705 71 225 2.0 4.0 0.00 0.00 0.00 95 1008.4
20260831100629 71 225 3.0 4.0 0.00 0.00 0.00 95 1008.4
20260831100516 71 225 3.0 4.0 0.00 0.00 0.00 95 1008.4
20260831100354 71 225 2.0 4.0 0.00 0.00 0.00 95 1008.4
20260831100320 71 225 2.0 4.0 0.00 0.00 0.00 95 1008.4
20260831100158 71 225 2.0 4.0 0.00 0.00 0.00 95 1008.4
20260831100007 71 224 3.0 4.0 0.00 0.00 0.00 94 1008.4
20260831095916 71 224 3.0 4.0 0.00 0.00 0.00 94 1008.4
20260831095754 71 224 3.0 4.0 0.00 0.00 0.00 94 1008.3
20260831095719 71 223 2.0 4.0 0.00 0.00 0.00 94 1008.4
20260831095623 71 223 2.0 4.0 0.00 0.00 0.00 94 1008.4
20260831095507 71 223 2.0 4.0 0.00 0.00 0.00 94 1008.4
20260831095412 71 223 3.0 4.0 0.00 0.00 0.00 94 1008.4
20260831095301 71 223 3.0 4.0 0.00 0.00 0.00 94 1008.4
20260831095206 71 233 3.0 4.0 0.00 0.00 0.00 94 1008.4
20260831095110 71 232 3.0 4.0 0.00 0.00 0.00 94 1008.5
20260831095016 71 232 3.0 4.0 0.00 0.00 0.00 94 1008.4
20260831094854 71 232 2.0 4.0 0.00 0.00 0.00 94 1008.5
20260831094819 71 232 2.0 4.0 0.00 0.00 0.00 94 1008.5
20260831094703 71 232 2.0 4.0 0.00 0.00 0.00 94 1008.4
20260831094632 71 232 2.0 4.0 0.00 0.00 0.00 94 1008.4
20260831094515 71 232 2.0 4.0 0.00 0.00 0.00 94 1008.5
20260831094441 71 232 3.0 4.0 0.00 0.00 0.00 94 1008.4
20260831094258 71 232 3.0 4.0 0.00 0.00 0.00 94 1008.4
20260831094203 71 232 3.0 4.0 0.00 0.00 0.00 93 1008.5
20260831094108 71 232 2.0 3.0 0.00 0.00 0.00 93 1008.5
20260831094012 71 232 2.0 3.0 0.00 0.00 0.00 93 1008.4
20260831093901 71 232 2.0 3.0 0.00 0.00 0.00 93 1008.4
20260831093805 71 232 2.0 3.0 0.00 0.00 0.00 93 1008.4
20260831093709 71 232 2.0 3.0 0.00 0.00 0.00 93 1008.5
20260831093634 71 232 2.0 3.0 0.00 0.00 0.00 93 1008.4
20260831093518 72 232 2.0 3.0 0.00 0.00 0.00 93 1008.4
20260831093356 72 232 2.0 3.0 0.00 0.00 0.00 93 1008.4
20260831093305 72 232 2.0 3.0 0.00 0.00 0.00 93 1008.4
20260831093230 72 232 2.0 3.0 0.00 0.00 0.00 93 1008.4
20260831093113 72 232 2.0 4.0 0.00 0.00 0.00 93 1008.4
20260831092958 72 232 1.0 4.0 0.00 0.00 0.00 93 1008.5
20260831092923 72 232 1.0 4.0 0.00 0.00 0.00 93 1008.5
20260831092807 72 232 1.0 4.0 0.00 0.00 0.00 93 1008.5
20260831092712 72 232 2.0 4.0 0.00 0.00 0.00 93 1008.4
20260831092621 72 232 2.0 4.0 0.00 0.00 0.00 93 1008.5
20260831092457 72 232 2.0 4.0 0.00 0.00 0.00 93 1008.6
20260831092402 72 232 2.0 4.0 0.00 0.00 0.00 93 1008.5
20260831092307 72 232 2.0 4.0 0.00 0.00 0.00 93 1008.5
20260831092231 72 232 2.0 3.0 0.00 0.00 0.00 93 1008.5
20260831092112 72 232 2.0 3.0 0.00 0.00 0.00 93 1008.5
20260831092017 72 232 2.0 4.0 0.00 0.00 0.00 93 1008.5
20260831091905 72 232 2.0 4.0 0.00 0.00 0.00 93 1008.5
20260831091810 72 232 1.0 5.0 0.00 0.00 0.00 93 1008.5
20260831091655 72 232 2.0 5.0 0.00 0.00 0.00 93 1008.6
20260831091600 72 232 2.0 5.0 0.00 0.00 0.00 93 1008.6
20260831091505 72 232 2.0 5.0 0.00 0.00 0.00 93 1008.6
20260831091410 72 232 2.0 5.0 0.00 0.00 0.00 93 1008.6
20260831091259 72 232 3.0 5.0 0.00 0.00 0.00 93 1008.6
20260831091204 72 232 3.0 5.0 0.00 0.00 0.00 93 1008.5
20260831091107 72 238 3.0 5.0 0.00 0.00 0.00 93 1008.5
20260831091032 72 238 3.0 5.0 0.00 0.00 0.00 93 1008.6
20260831090915 72 255 3.0 6.0 0.00 0.00 0.00 93 1008.6
20260831090759 72 256 3.0 6.0 0.00 0.00 0.00 93 1008.6
20260831090704 72 257 2.0 6.0 0.00 0.00 0.00 93 1008.6
20260831090633 72 261 2.0 6.0 0.00 0.00 0.00 93 1008.6
20260831090517 72 265 2.0 6.0 0.00 0.00 0.00 93 1008.7
20260831090441 72 265 1.0 6.0 0.00 0.00 0.00 93 1008.7
20260831090258 72 265 2.0 6.0 0.00 0.00 0.00 93 1008.6
20260831090203 72 265 2.0 6.0 0.00 0.00 0.00 93 1008.7
20260831090107 72 265 2.0 6.0 0.00 0.00 0.00 93 1008.7
20260831085956 72 242 2.0 4.0 0.00 0.00 0.00 93 1008.7
20260831085901 72 242 2.0 4.0 0.00 0.00 0.00 93 1008.6
20260831085805 72 242 2.0 4.0 0.00 0.00 0.00 93 1008.6
20260831085710 72 240 2.0 4.0 0.00 0.00 0.00 93 1008.6
20260831085555 72 240 2.0 4.0 0.00 0.00 0.00 93 1008.4
20260831085500 72 240 3.0 4.0 0.00 0.00 0.00 93 1008.4
20260831085408 72 240 3.0 5.0 0.00 0.00 0.00 93 1008.4
20260831085313 72 241 3.0 5.0 0.00 0.00 0.00 93 1008.4
20260831085158 72 241 2.0 5.0 0.00 0.00 0.00 93 1008.4
20260831085103 72 241 2.0 5.0 0.00 0.00 0.00 92 1008.4
20260831085008 72 244 2.0 5.0 0.00 0.00 0.00 92 1008.4
20260831084913 72 244 2.0 5.0 0.00 0.00 0.00 92 1008.4
20260831084802 72 244 2.0 5.0 0.00 0.00 0.00 92 1008.4
20260831084706 72 244 3.0 5.0 0.00 0.00 0.00 92 1008.4
20260831084631 72 244 3.0 5.0 0.00 0.00 0.00 92 1008.4
20260831084516 72 234 3.0 4.0 0.00 0.00 0.00 92 1008.3
20260831084354 73 234 3.0 4.0 0.00 0.00 0.00 92 1008.4
20260831084259 73 235 2.0 4.0 0.00 0.00 0.00 92 1008.4
20260831084224 73 234 2.0 3.0 0.00 0.00 0.00 92 1008.5
20260831084131 73 234 2.0 3.0 0.00 0.00 0.00 92 1008.5
20260831083955 73 234 2.0 3.0 0.00 0.00 0.00 92 1008.5
20260831083920 73 235 2.0 3.0 0.00 0.00 0.00 92 1008.5
20260831083758 73 235 2.0 3.0 0.00 0.00 0.00 92 1008.5
20260831083703 73 235 2.0 3.0 0.00 0.00 0.00 92 1008.5
20260831083608 73 234 2.0 4.0 0.00 0.00 0.00 92 1008.5
20260831083518 73 234 1.0 4.0 0.00 0.00 0.00 92 1008.4
20260831083356 73 234 1.0 4.0 0.00 0.00 0.00 92 1008.5
20260831083301 73 234 1.0 4.0 0.00 0.00 0.00 92 1008.5
20260831083204 73 234 2.0 5.0 0.00 0.00 0.00 92 1008.4
20260831083109 73 234 2.0 5.0 0.00 0.00 0.00 92 1008.4
20260831083034 73 234 1.0 7.0 0.00 0.00 0.00 92 1008.5
20260831082902 73 234 2.0 7.0 0.00 0.00 0.00 92 1008.4
20260831082807 73 234 2.0 7.0 0.00 0.00 0.00 92 1008.4
20260831082712 73 234 2.0 7.0 0.00 0.00 0.00 92 1008.4
20260831082618 73 234 3.0 7.0 0.00 0.00 0.00 92 1008.3
20260831082456 73 234 3.0 7.0 0.00 0.00 0.00 92 1008.3
20260831082401 73 234 4.0 7.0 0.00 0.00 0.00 92 1008.2
20260831082310 73 234 4.0 7.0 0.00 0.00 0.00 92 1008.2
20260831082155 73 236 3.0 7.0 0.00 0.00 0.00 92 1008.2
20260831082119 73 229 3.0 7.0 0.00 0.00 0.00 92 1008.2
20260831082003 73 229 3.0 8.0 0.00 0.00 0.00 92 1008.2
20260831081907 73 229 3.0 8.0 0.00 0.00 0.00 92 1008.2
20260831081811 73 238 3.0 8.0 0.00 0.00 0.00 92 1008.2
20260831081700 73 238 3.0 8.0 0.00 0.00 0.00 92 1008.2
20260831081605 73 238 3.0 8.0 0.00 0.00 0.00 91 1008.2
20260831081510 73 237 3.0 8.0 0.00 0.00 0.00 92 1008.1
20260831081415 73 237 3.0 8.0 0.00 0.00 0.00 91 1008.1
20260831081320 73 237 4.0 8.0 0.00 0.00 0.00 92 1008.1
20260831081158 73 258 5.0 8.0 0.00 0.00 0.00 92 1008.2
20260831081123 73 234 5.0 8.0 0.00 0.00 0.00 92 1008.2
20260831081027 73 240 5.0 8.0 0.00 0.00 0.00 92 1008.2
20260831080855 73 232 4.0 8.0 0.00 0.00 0.00 91 1008.1
20260831080819 73 269 5.0 8.0 0.00 0.00 0.00 92 1008.2
20260831080703 73 217 5.0 8.0 0.00 0.00 0.00 92 1008.2
20260831080608 73 242 5.0 8.0 0.00 0.00 0.00 92 1008.2
20260831080513 73 251 5.0 8.0 0.00 0.00 0.00 92 1008.3
20260831080357 73 257 5.0 8.0 0.00 0.00 0.00 92 1008.2
20260831080306 73 255 5.0 9.0 0.00 0.00 0.00 92 1008.2
20260831080210 73 230 5.0 9.0 0.00 0.00 0.00 91 1008.1
20260831080115 73 246 4.0 9.0 0.00 0.00 0.00 91 1008.2
20260831080019 73 252 4.0 9.0 0.00 0.00 0.00 91 1008.2
20260831075903 73 249 4.0 9.0 0.00 0.00 0.00 91 1008.2
20260831075807 73 238 5.0 9.0 0.00 0.00 0.00 91 1008.2
20260831075656 73 236 5.0 9.0 0.00 0.00 0.00 91 1008.2
20260831075601 73 227 5.0 9.0 0.00 0.00 0.00 91 1008.2
20260831075506 73 219 5.0 9.0 0.00 0.00 0.00 91 1008.2
20260831075410 73 232 5.0 9.0 0.00 0.00 0.00 91 1008.2
20260831075315 73 227 4.0 7.0 0.00 0.00 0.00 91 1008.3
20260831075241 73 253 5.0 8.0 0.00 0.00 0.00 91 1008.3
20260831075058 73 237 4.0 8.0 0.00 0.00 0.00 91 1008.3
20260831075026 73 217 4.0 8.0 0.00 0.00 0.00 91 1008.3
20260831074910 73 215 3.0 8.0 0.00 0.00 0.00 91 1008.3
20260831074755 73 236 4.0 8.0 0.00 0.00 0.00 91 1008.3
20260831074659 73 236 4.0 8.0 0.00 0.00 0.00 91 1008.3
20260831074624 73 232 4.0 8.0 0.00 0.00 0.00 91 1008.4
20260831074528 73 238 4.0 8.0 0.00 0.00 0.00 91 1008.4
20260831074432 73 242 4.0 8.0 0.00 0.00 0.00 91 1008.3
20260831074300 73 233 4.0 7.0 0.00 0.00 0.00 91 1008.3
20260831074225 73 240 4.0 7.0 0.00 0.00 0.00 91 1008.3
20260831074129 73 243 4.0 7.0 0.00 0.00 0.00 91 1008.3
20260831074012 73 253 4.0 7.0 0.00 0.00 0.00 91 1008.3
20260831073857 73 229 4.0 5.0 0.00 0.00 0.00 91 1008.3
20260831073802 73 229 3.0 5.0 0.00 0.00 0.00 91 1008.4
20260831073707 73 227 3.0 5.0 0.00 0.00 0.00 91 1008.4
20260831073555 73 227 3.0 5.0 0.00 0.00 0.00 91 1008.4
20260831073520 73 227 3.0 5.0 0.00 0.00 0.00 91 1008.4
20260831073358 73 225 3.0 5.0 0.00 0.00 0.00 91 1008.4
20260831073303 73 225 3.0 5.0 0.00 0.00 0.00 91 1008.4
20260831073228 73 225 3.0 5.0 0.00 0.00 0.00 91 1008.4
20260831073132 73 221 3.0 5.0 0.00 0.00 0.00 91 1008.4
20260831073013 73 221 3.0 5.0 0.00 0.00 0.00 91 1008.3
20260831072901 73 242 3.0 6.0 0.00 0.00 0.00 90 1008.5
20260831072806 73 241 3.0 6.0 0.00 0.00 0.00 90 1008.5
20260831072711 73 241 3.0 6.0 0.00 0.00 0.00 90 1008.4
20260831072616 73 246 3.0 6.0 0.00 0.00 0.00 90 1008.5
20260831072454 73 240 3.0 6.0 0.00 0.00 0.00 90 1008.5
20260831072419 73 243 4.0 6.0 0.00 0.00 0.00 90 1008.4
20260831072307 73 229 4.0 6.0 0.00 0.00 0.00 90 1008.4
20260831072212 73 229 4.0 6.0 0.00 0.00 0.00 90 1008.4
20260831072057 73 229 4.0 6.0 0.00 0.00 0.00 90 1008.4
20260831072002 73 234 4.0 6.0 0.00 0.00 0.00 90 1008.4
20260831071907 73 236 4.0 6.0 0.00 0.00 0.00 90 1008.4
20260831071812 73 235 4.0 6.0 0.00 0.00 0.00 90 1008.5
20260831071701 73 240 4.0 8.0 0.00 0.00 0.00 90 1008.5
20260831071605 73 205 4.0 8.0 0.00 0.00 0.00 90 1008.5
20260831071510 73 233 4.0 8.0 0.00 0.00 0.00 90 1008.5
20260831071355 73 237 4.0 8.0 0.00 0.00 0.00 90 1008.6
20260831071300 73 237 4.0 8.0 0.00 0.00 0.00 90 1008.6
20260831071205 73 259 4.0 8.0 0.00 0.00 0.00 90 1008.6
20260831071114 73 224 4.0 8.0 0.00 0.00 0.00 90 1008.6
20260831071018 73 244 4.0 8.0 0.00 0.00 0.00 90 1008.6
20260831070856 73 234 4.0 10.0 0.00 0.00 0.00 90 1008.6
20260831070821 73 248 4.0 10.0 0.00 0.00 0.00 90 1008.6
20260831070705 73 250 4.0 10.0 0.00 0.00 0.00 90 1008.6
20260831070610 73 239 4.0 10.0 0.00 0.00 0.00 90 1008.6
20260831070459 73 223 4.0 10.0 0.00 0.00 0.00 90 1008.5
20260831070404 73 214 5.0 10.0 0.00 0.00 0.00 90 1008.4
20260831070309 73 213 6.0 10.0 0.00 0.00 0.00 90 1008.4
20260831070212 73 234 5.0 10.0 0.00 0.00 0.00 90 1008.5
20260831070057 73 213 4.0 8.0 0.00 0.00 0.00 90 1008.4
20260831070001 73 229 5.0 8.0 0.00 0.00 0.00 90 1008.5
20260831065910 73 233 5.0 8.0 0.00 0.00 0.00 90 1008.5
20260831065812 73 234 5.0 8.0 0.00 0.00 0.00 90 1008.5
20260831065657 73 257 4.0 8.0 0.00 0.00 0.00 90 1008.6
20260831065602 73 222 4.0 8.0 0.00 0.00 0.00 90 1008.6
20260831065507 73 223 5.0 8.0 0.00 0.00 0.00 90 1008.6
20260831065411 73 224 5.0 8.0 0.00 0.00 0.00 90 1008.6
20260831065300 73 224 5.0 8.0 0.00 0.00 0.00 90 1008.6
20260831065225 73 220 5.0 6.0 0.00 0.00 0.00 90 1008.6
20260831065106 73 221 4.0 7.0 0.00 0.00 0.00 90 1008.6
20260831065011 73 219 3.0 7.0 0.00 0.00 0.00 90 1008.7
20260831064916 74 240 4.0 7.0 0.00 0.00 0.00 90 1008.7
20260831064759 74 230 4.0 7.0 0.00 0.00 0.00 90 1008.7
20260831064704 74 241 4.0 7.0 0.00 0.00 0.00 90 1008.7
20260831064633 74 221 4.0 7.0 0.00 0.00 0.00 89 1008.7
20260831064537 74 220 4.0 7.0 0.00 0.00 0.00 89 1008.6
20260831064354 74 219 5.0 7.0 0.00 0.00 0.00 89 1008.6
20260831064259 74 211 5.0 7.0 0.00 0.00 0.00 89 1008.7
20260831064203 74 217 5.0 7.0 0.00 0.00 0.00 89 1008.8
20260831064107 74 207 4.0 7.0 0.00 0.00 0.00 89 1008.8
20260831063956 74 223 4.0 6.0 0.00 0.00 0.00 89 1008.8
20260831063900 74 214 4.0 6.0 0.00 0.00 0.00 89 1008.8
20260831063805 74 222 4.0 6.0 0.00 0.00 0.00 89 1008.8
20260831063709 74 214 3.0 5.0 0.00 0.00 0.00 89 1008.8
20260831063633 74 211 3.0 8.0 0.00 0.00 0.00 89 1008.9
20260831063516 74 211 3.0 8.0 0.00 0.00 0.00 89 1008.9
20260831063420 74 223 3.0 8.0 0.00 0.00 0.00 89 1008.9
20260831063258 74 243 4.0 8.0 0.00 0.00 0.00 89 1008.9
20260831063207 74 248 4.0 8.0 0.00 0.00 0.00 89 1008.9
20260831063112 74 223 4.0 8.0 0.00 0.00 0.00 89 1008.9
20260831063037 74 221 4.0 8.0 0.00 0.00 0.00 89 1008.9
20260831062854 74 225 4.0 8.0 0.00 0.00 0.00 89 1008.8
20260831062759 74 241 4.0 7.0 0.00 0.00 0.00 89 1008.8
20260831062704 74 234 4.0 8.0 0.00 0.00 0.00 89 1008.8
20260831062613 74 234 4.0 8.0 0.00 0.00 0.00 89 1008.8
20260831062539 74 229 4.0 8.0 0.00 0.00 0.00 89 1008.8
20260831062355 74 216 3.0 8.0 0.00 0.00 0.00 89 1008.9
20260831062300 74 236 3.0 8.0 0.00 0.00 0.00 89 1009.0
20260831062204 74 236 4.0 8.0 0.00 0.00 0.00 89 1009.0
20260831062129 74 250 4.0 8.0 0.00 0.00 0.00 89 1009.0
20260831062013 74 255 5.0 8.0 0.00 0.00 0.00 89 1009.0
20260831061902 74 240 6.0 8.0 0.00 0.00 0.00 89 1008.9
20260831061807 74 231 5.0 9.0 0.00 0.00 0.00 89 1008.9
20260831061712 74 261 4.0 9.0 0.00 0.00 0.00 89 1008.9
20260831061556 74 211 3.0 8.0 0.00 0.00 0.00 89 1009.0
20260831061501 74 237 4.0 8.0 0.00 0.00 0.00 89 1009.0
20260831061426 74 247 5.0 8.0 0.00 0.00 0.00 89 1009.0
20260831061254 74 236 4.0 8.0 0.00 0.00 0.00 89 1009.1
20260831061159 74 235 3.0 8.0 0.00 0.00 0.00 89 1009.1
20260831061123 74 234 3.0 8.0 0.00 0.00 0.00 89 1009.0
20260831061007 74 244 4.0 8.0 0.00 0.00 0.00 89 1009.0
20260831060912 74 249 4.0 8.0 0.00 0.00 0.00 88 1009.0
20260831060757 74 263 4.0 8.0 0.00 0.00 0.00 88 1008.9
20260831060706 74 232 3.0 8.0 0.00 0.00 0.00 88 1008.9
20260831060611 74 242 3.0 8.0 0.00 0.00 0.00 88 1009.0
20260831060516 74 247 4.0 8.0 0.00 0.00 0.00 88 1009.0
20260831060354 74 250 4.0 8.0 0.00 0.00 0.00 88 1009.0
20260831060259 74 236 5.0 8.0 0.00 0.00 0.00 88 1008.9
20260831060204 74 239 5.0 8.0 0.00 0.00 0.00 88 1008.9
20260831060112 74 236 4.0 10.0 0.00 0.00 0.00 88 1008.9
20260831055957 74 232 4.0 11.0 0.00 0.00 0.00 88 1009.0
20260831055902 74 244 5.0 11.0 0.00 0.00 0.00 88 1008.9
20260831055807 74 223 5.0 11.0 0.00 0.00 0.00 88 1008.9
20260831055712 74 247 4.0 11.0 0.00 0.00 0.00 88 1009.0
20260831055556 74 234 4.0 11.0 0.00 0.00 0.00 88 1009.0
20260831055525 74 236 5.0 11.0 0.00 0.00 0.00 88 1009.0
20260831055428 74 234 6.0 11.0 0.00 0.00 0.00 88 1009.0
20260831055311 74 238 6.0 11.0 0.00 0.00 0.00 88 1009.0
20260831055216 74 220 5.0 9.0 0.00 0.00 0.00 88 1009.0
20260831055120 74 209 4.0 9.0 0.00 0.00 0.00 88 1008.9
20260831055004 74 239 4.0 9.0 0.00 0.00 0.00 88 1009.1
20260831054929 74 234 5.0 9.0 0.00 0.00 0.00 88 1009.1
20260831054812 74 246 6.0 9.0 0.00 0.00 0.00 88 1009.1
20260831054701 74 244 6.0 8.0 0.00 0.00 0.00 88 1009.1
20260831054606 74 228 5.0 8.0 0.00 0.00 0.00 88 1009.1
20260831054511 74 229 5.0 8.0 0.00 0.00 0.00 88 1009.1
20260831054356 74 232 5.0 9.0 0.00 0.00 0.00 88 1009.1
20260831054301 74 230 4.0 9.0 0.00 0.00 0.00 88 1009.2
20260831054205 74 251 3.0 11.0 0.00 0.00 0.00 88 1009.2
20260831054134 74 236 2.0 11.0 0.00 0.00 0.00 88 1009.2
20260831054017 74 236 3.0 11.0 0.00 0.00 0.00 88 1009.2
20260831053901 74 236 4.0 11.0 0.00 0.00 0.00 88 1009.1
20260831053806 74 236 4.0 11.0 0.00 0.00 0.00 88 1009.1
20260831053731 74 235 4.0 11.0 0.00 0.00 0.00 87 1009.1
20260831053555 74 238 5.0 11.0 0.00 0.00 0.00 88 1009.2
20260831053520 74 234 6.0 11.0 0.00 0.00 0.00 87 1009.1
20260831053407 74 222 5.0 8.0 0.00 0.00 0.00 87 1009.1
20260831053312 74 229 5.0 8.0 0.00 0.00 0.00 87 1009.2
20260831053237 74 257 3.0 7.0 0.00 0.00 0.00 87 1009.4
20260831053141 74 244 3.0 7.0 0.00 0.00 0.00 87 1009.4
20260831052958 75 236 3.0 7.0 0.00 0.00 0.00 87 1009.5
20260831052922 74 232 3.0 7.0 0.00 0.00 0.00 87 1009.5
20260831052806 75 233 3.0 7.0 0.00 0.00 0.00 87 1009.5
20260831052655 75 246 3.0 7.0 0.00 0.00 0.00 87 1009.5
20260831052620 75 245 3.0 7.0 0.00 0.00 0.00 87 1009.5
20260831052458 75 252 3.0 7.0 0.00 0.00 0.00 87 1009.5
20260831052402 75 236 3.0 7.0 0.00 0.00 0.00 87 1009.5
20260831052307 75 237 4.0 7.0 0.00 0.00 0.00 87 1009.5
20260831052212 75 259 4.0 9.0 0.00 0.00 0.00 87 1009.5
20260831052101 75 248 5.0 9.0 0.00 0.00 0.00 87 1009.5
20260831052005 75 227 5.0 9.0 0.00 0.00 0.00 87 1009.5
20260831051910 75 248 5.0 9.0 0.00 0.00 0.00 87 1009.5
20260831051755 75 237 4.0 9.0 0.00 0.00 0.00 87 1009.5
20260831051719 75 250 4.0 9.0 0.00 0.00 0.00 87 1009.5
20260831051623 75 234 5.0 9.0 0.00 0.00 0.00 87 1009.5
20260831051507 75 239 6.0 9.0 0.00 0.00 0.00 87 1009.5
20260831051356 75 235 5.0 10.0 0.00 0.00 0.00 87 1009.6
20260831051321 75 240 4.0 9.0 0.00 0.00 0.00 87 1009.6
20260831051157 75 233 4.0 9.0 0.00 0.00 0.00 87 1009.7
20260831051102 75 234 4.0 9.0 0.00 0.00 0.00 87 1009.7
20260831051007 75 234 6.0 9.0 0.00 0.00 0.00 87 1009.7
20260831050912 75 250 6.0 9.0 0.00 0.00 0.00 87 1009.6
20260831050801 75 267 5.0 9.0 0.00 0.00 0.00 87 1009.7
20260831050706 75 252 5.0 9.0 0.00 0.00 0.00 87 1009.7
20260831050611 75 259 5.0 9.0 0.00 0.00 0.00 87 1009.7
20260831050456 75 232 4.0 9.0 0.00 0.00 0.00 87 1009.7
20260831050401 75 236 5.0 9.0 0.00 0.00 0.00 87 1009.8
20260831050304 75 250 6.0 9.0 0.00 0.00 0.00 87 1009.7
20260831050233 75 241 5.0 9.0 0.00 0.00 0.00 87 1009.7
20260831050110 75 265 5.0 9.0 0.00 0.00 0.00 87 1009.7
20260831050015 75 231 4.0 9.0 0.00 0.00 0.00 87 1009.7
20260831045859 75 242 4.0 9.0 0.00 0.00 0.00 86 1009.8
20260831045824 75 272 5.0 9.0 0.00 0.00 0.00 86 1009.8
20260831045708 75 268 5.0 9.0 0.00 0.00 0.00 86 1009.8
20260831045613 75 271 5.0 9.0 0.00 0.00 0.00 86 1009.8
20260831045502 75 265 5.0 9.0 0.00 0.00 0.00 86 1009.8
20260831045407 75 254 4.0 9.0 0.00 0.00 0.00 86 1009.9
20260831045312 75 275 4.0 9.0 0.00 0.00 0.00 86 1009.9
20260831045217 75 261 4.0 9.0 0.00 0.00 0.00 86 1009.9
20260831045055 75 290 6.0 9.0 0.00 0.00 0.00 86 1009.9
20260831045000 75 267 6.0 9.0 0.00 0.00 0.00 86 1009.9
20260831044908 75 267 5.0 9.0 0.00 0.00 0.00 86 1009.9
20260831044813 75 249 5.0 9.0 0.00 0.00 0.00 86 1009.9
20260831044658 75 257 5.0 8.0 0.00 0.00 0.00 86 1010.0
20260831044603 75 360 5.0 8.0 0.00 0.00 0.00 86 1009.9
20260831044508 75 222 5.0 8.0 0.00 0.00 0.00 86 1009.9
20260831044357 75 260 5.0 9.0 0.00 0.00 0.00 86 1010.0
20260831044322 75 297 4.0 9.0 0.00 0.00 0.00 86 1009.9
20260831044206 75 254 4.0 9.0 0.00 0.00 0.00 86 1009.9
20260831044111 75 242 5.0 9.0 0.00 0.00 0.00 86 1009.9
20260831043956 75 236 5.0 9.0 0.00 0.00 0.00 86 1010.0
20260831043921 75 281 4.0 9.0 0.00 0.00 0.00 86 1010.0
20260831043824 75 248 4.0 9.0 0.00 0.00 0.00 86 1010.0
20260831043708 75 250 5.0 13.0 0.00 0.00 0.00 86 1010.0
20260831043617 75 253 6.0 13.0 0.00 0.00 0.00 86 1010.0
20260831043455 75 262 4.0 13.0 0.00 0.00 0.00 86 1010.1
20260831043419 76 263 4.0 13.0 0.00 0.00 0.00 86 1010.1
20260831043323 76 261 5.0 13.0 0.00 0.00 0.00 86 1010.1
20260831043206 76 246 6.0 13.0 0.00 0.00 0.00 86 1010.1
20260831043111 76 229 4.0 13.0 0.00 0.00 0.00 86 1010.1
20260831043000 76 260 5.0 13.0 0.00 0.00 0.00 86 1010.0
20260831042925 76 224 8.0 13.0 0.00 0.00 0.00 86 1009.9
20260831042809 76 293 7.0 13.0 0.00 0.00 0.00 86 1009.9
20260831042734 76 296 6.0 11.0 0.00 0.00 0.00 86 1009.9
20260831042558 76 261 7.0 13.0 0.00 0.00 0.00 85 1009.9
20260831042503 76 291 7.0 13.0 0.00 0.00 0.00 85 1009.9
20260831042408 76 252 7.0 13.0 0.00 0.00 0.00 85 1009.9
20260831042257 76 257 5.0 13.0 0.00 0.00 0.00 85 1009.9
20260831042202 76 247 5.0 13.0 0.00 0.00 0.00 85 1010.0
20260831042127 76 240 6.0 13.0 0.00 0.00 0.00 85 1010.0
20260831042011 76 276 6.0 13.0 0.00 0.00 0.00 85 1010.0
20260831041915 76 254 7.0 13.0 0.00 0.00 0.00 85 1010.0
20260831041819 76 296 7.0 13.0 0.00 0.00 0.00 85 1010.0
20260831041702 76 252 7.0 13.0 0.00 0.00 0.00 85 1010.0
20260831041627 76 253 5.0 11.0 0.00 0.00 0.00 85 1010.0
20260831041513 76 255 6.0 11.0 0.00 0.00 0.00 85 1010.0
20260831041358 76 269 6.0 11.0 0.00 0.00 0.00 85 1010.0
20260831041323 76 284 5.0 11.0 0.00 0.00 0.00 85 1009.9
20260831041207 76 261 5.0 11.0 0.00 0.00 0.00 85 1009.9
20260831041112 76 290 7.0 11.0 0.00 0.00 0.00 85 1009.9
20260831041017 76 259 6.0 11.0 0.00 0.00 0.00 85 1009.9
20260831040904 76 268 5.0 12.0 0.00 0.00 0.00 85 1010.0
20260831040809 76 235 5.0 12.0 0.00 0.00 0.00 85 1010.0
20260831040654 76 244 6.0 12.0 0.00 0.00 0.00 85 1010.0
20260831040558 76 252 7.0 12.0 0.00 0.00 0.00 85 1010.0
20260831040523 76 283 6.0 12.0 0.00 0.00 0.00 85 1010.0
20260831040407 76 254 5.0 12.0 0.00 0.00 0.00 85 1010.0
20260831040256 76 265 6.0 12.0 0.00 0.00 0.00 84 1009.9
20260831040201 76 252 6.0 12.0 0.00 0.00 0.00 84 1009.9
20260831040106 76 294 5.0 12.0 0.00 0.00 0.00 84 1009.9
20260831040011 76 255 4.0 12.0 0.00 0.00 0.00 84 1009.9
20260831035855 76 360 6.0 12.0 0.00 0.00 0.00 84 1009.9
20260831035800 76 254 7.0 12.0 0.00 0.00 0.00 84 1009.8
20260831035708 76 236 8.0 12.0 0.00 0.00 0.00 84 1009.8
20260831035613 76 261 8.0 12.0 0.00 0.00 0.00 84 1009.8
20260831035537 76 246 7.0 12.0 0.00 0.00 0.00 84 1009.9
20260831035355 76 245 5.0 12.0 0.00 0.00 0.00 84 1009.9
20260831035300 76 298 5.0 12.0 0.00 0.00 0.00 84 1009.8
20260831035224 76 222 7.0 12.0 0.00 0.00 0.00 84 1009.9
20260831035108 76 271 7.0 12.0 0.00 0.00 0.00 84 1009.8
20260831035016 76 259 7.0 12.0 0.00 0.00 0.00 84 1009.8
20260831034859 76 263 7.0 11.0 0.00 0.00 0.00 84 1009.8
20260831034824 76 270 7.0 13.0 0.00 0.00 0.00 84 1009.8
20260831034707 76 257 8.0 13.0 0.00 0.00 0.00 84 1009.8
20260831034612 76 254 7.0 13.0 0.00 0.00 0.00 84 1009.8
20260831034457 76 281 5.0 13.0 0.00 0.00 0.00 84 1009.9
20260831034402 76 269 6.0 13.0 0.00 0.00 0.00 84 1009.9
20260831034310 76 230 5.0 13.0 0.00 0.00 0.00 84 1009.9
20260831034212 76 280 7.0 13.0 0.00 0.00 0.00 84 1009.9
20260831034056 76 267 8.0 13.0 0.00 0.00 0.00 84 1009.8
20260831034001 76 267 7.0 13.0 0.00 0.00 0.00 83 1009.8
20260831033905 76 273 6.0 11.0 0.00 0.00 0.00 83 1009.8
20260831033810 77 238 7.0 11.0 0.00 0.00 0.00 83 1009.8
20260831033719 77 242 5.0 11.0 0.00 0.00 0.00 83 1009.8
20260831033603 77 251 6.0 11.0 0.00 0.00 0.00 83 1009.9
20260831033508 77 281 5.0 11.0 0.00 0.00 0.00 83 1009.9
20260831033413 77 265 5.0 11.0 0.00 0.00 0.00 83 1009.8
20260831033257 77 235 5.0 9.0 0.00 0.00 0.00 83 1009.8
20260831033202 77 277 5.0 9.0 0.00 0.00 0.00 83 1009.8
20260831033126 77 223 5.0 9.0 0.00 0.00 0.00 83 1009.9
20260831032954 77 251 5.0 9.0 0.00 0.00 0.00 83 1009.9
20260831032859 77 231 5.0 9.0 0.00 0.00 0.00 83 1009.9
20260831032804 77 251 4.0 9.0 0.00 0.00 0.00 82 1010.0
20260831032709 77 265 4.0 10.0 0.00 0.00 0.00 82 1010.0
20260831032554 77 254 5.0 10.0 0.00 0.00 0.00 82 1010.0
20260831032459 77 259 5.0 10.0 0.00 0.00 0.00 82 1009.9
20260831032407 77 276 5.0 10.0 0.00 0.00 0.00 82 1009.9
20260831032312 77 252 5.0 10.0 0.00 0.00 0.00 82 1009.9
20260831032217 77 253 4.0 10.0 0.00 0.00 0.00 82 1009.8
20260831032055 77 242 4.0 10.0 0.00 0.00 0.00 82 1009.8
20260831032020 77 240 5.0 10.0 0.00 0.00 0.00 82 1009.8
20260831031904 77 270 6.0 10.0 0.00 0.00 0.00 82 1009.8
20260831031813 77 244 6.0 10.0 0.00 0.00 0.00 82 1009.8
20260831031658 77 247 7.0 11.0 0.00 0.00 0.00 82 1009.7
20260831031622 77 245 7.0 11.0 0.00 0.00 0.00 82 1009.7
20260831031506 77 273 5.0 12.0 0.00 0.00 0.00 82 1009.7
20260831031431 77 273 5.0 12.0 0.00 0.00 0.00 82 1009.7
20260831031315 77 244 4.0 12.0 0.00 0.00 0.00 82 1009.7
20260831031218 77 228 6.0 12.0 0.00 0.00 0.00 81 1009.7
20260831031122 77 261 7.0 12.0 0.00 0.00 0.00 81 1009.8
20260831031010 77 267 6.0 12.0 0.00 0.00 0.00 81 1009.8
20260831030854 77 261 5.0 12.0 0.00 0.00 0.00 81 1009.7
20260831030819 77 252 6.0 12.0 0.00 0.00 0.00 81 1009.7
20260831030657 77 256 7.0 13.0 0.00 0.00 0.00 81 1009.7
20260831030602 77 236 6.0 13.0 0.00 0.00 0.00 81 1009.7
20260831030507 77 247 5.0 13.0 0.00 0.00 0.00 81 1009.6
20260831030416 77 268 6.0 13.0 0.00 0.00 0.00 81 1009.6
20260831030300 77 259 6.0 13.0 0.00 0.00 0.00 81 1009.6
20260831030205 77 228 5.0 13.0 0.00 0.00 0.00 81 1009.6
20260831030110 77 227 5.0 13.0 0.00 0.00 0.00 81 1009.6
20260831030015 78 232 6.0 13.0 0.00 0.00 0.00 81 1009.6
20260831025940 78 254 7.0 13.0 0.00 0.00 0.00 81 1009.5
20260831025756 78 259 6.0 10.0 0.00 0.00 0.00 81 1009.4
20260831025725 78 292 6.0 9.0 0.00 0.00 0.00 80 1009.5
20260831025609 78 236 5.0 9.0 0.00 0.00 0.00 80 1009.5
20260831025454 78 244 4.0 9.0 0.00 0.00 0.00 80 1009.5
20260831025359 78 241 5.0 12.0 0.00 0.00 0.00 80 1009.5
20260831025306 78 242 5.0 13.0 0.00 0.00 0.00 80 1009.4
20260831025229 78 225 6.0 13.0 0.00 0.00 0.00 80 1009.4
20260831025057 78 227 7.0 13.0 0.00 0.00 0.00 80 1009.5
20260831025002 78 215 7.0 14.0 0.00 0.00 0.00 79 1009.5
20260831024907 78 251 6.0 14.0 0.00 0.00 0.00 79 1009.5
20260831024812 78 236 6.0 14.0 0.00 0.00 0.00 79 1009.5
20260831024656 78 264 9.0 14.0 0.00 0.00 0.00 79 1009.5
20260831024600 78 254 10.0 14.0 0.00 0.00 0.00 79 1009.6
20260831024524 78 285 9.0 14.0 0.00 0.00 0.00 79 1009.6
20260831024412 78 248 8.0 14.0 0.00 0.00 0.00 79 1009.6
20260831024317 78 232 8.0 14.0 0.00 0.00 0.00 79 1009.6
20260831024155 78 237 9.0 14.0 0.00 0.00 0.00 79 1009.6
20260831024100 78 251 8.0 14.0 0.00 0.00 0.00 78 1009.6
20260831024005 78 250 7.0 13.0 0.00 0.00 0.00 78 1009.6
20260831023909 78 234 6.0 13.0 0.00 0.00 0.00 78 1009.6
20260831023758 78 250 6.0 13.0 0.00 0.00 0.00 78 1009.7
20260831023703 78 255 7.0 15.0 0.00 0.00 0.00 78 1009.7
20260831023607 79 217 7.0 15.0 0.00 0.00 0.00 78 1009.7
20260831023532 79 216 6.0 15.0 0.00 0.00 0.00 78 1009.7
20260831023355 79 237 8.0 15.0 0.00 0.00 0.00 77 1009.7
20260831023300 79 253 9.0 15.0 0.00 0.00 0.00 77 1009.7
20260831023209 79 242 8.0 15.0 0.00 0.00 0.00 77 1009.7
20260831023054 79 232 8.0 15.0 0.00 0.00 0.00 77 1009.7
20260831022959 79 222 9.0 15.0 0.00 0.00 0.00 77 1009.7
20260831022924 79 284 9.0 15.0 0.00 0.00 0.00 77 1009.7
20260831022807 79 225 8.0 13.0 0.00 0.00 0.00 77 1009.7
20260831022712 79 259 6.0 13.0 0.00 0.00 0.00 76 1009.7
20260831022601 79 252 7.0 13.0 0.00 0.00 0.00 76 1009.7
20260831022506 79 231 8.0 13.0 0.00 0.00 0.00 76 1009.7
20260831022411 79 245 9.0 13.0 0.00 0.00 0.00 76 1009.7
20260831022256 79 265 8.0 13.0 0.00 0.00 0.00 76 1009.7
20260831022200 79 247 6.0 13.0 0.00 0.00 0.00 76 1009.7
20260831022104 79 224 6.0 13.0 0.00 0.00 0.00 76 1009.6
20260831022029 79 242 7.0 13.0 0.00 0.00 0.00 76 1009.6
20260831021857 79 238 6.0 14.0 0.00 0.00 0.00 75 1009.7
20260831021801 80 224 6.0 14.0 0.00 0.00 0.00 75 1009.7
20260831021726 80 268 7.0 14.0 0.00 0.00 0.00 75 1009.6
20260831021610 80 228 7.0 14.0 0.00 0.00 0.00 75 1009.6
20260831021515 80 274 6.0 14.0 0.00 0.00 0.00 75 1009.6
20260831021359 80 289 7.0 14.0 0.00 0.00 0.00 75 1009.6
20260831021308 80 263 8.0 14.0 0.00 0.00 0.00 75 1009.6
20260831021213 80 233 8.0 14.0 0.00 0.00 0.00 75 1009.5
20260831021117 80 220 8.0 14.0 0.00 0.00 0.00 75 1009.5
20260831020955 80 261 6.0 14.0 0.00 0.00 0.00 75 1009.5
20260831020859 80 267 7.0 15.0 0.00 0.00 0.00 75 1009.6
20260831020824 80 265 8.0 15.0 0.00 0.00 0.00 74 1009.5
20260831020708 80 257 7.0 15.0 0.00 0.00 0.00 74 1009.5
20260831020617 80 236 6.0 15.0 0.00 0.00 0.00 74 1009.4
20260831020455 80 225 8.0 15.0 0.00 0.00 0.00 74 1009.5
20260831020400 80 289 8.0 15.0 0.00 0.00 0.00 74 1009.5
20260831020324 80 241 8.0 15.0 0.00 0.00 0.00 74 1009.4
20260831020208 80 265 9.0 15.0 0.00 0.00 0.00 74 1009.4
20260831020112 80 252 8.0 15.0 0.00 0.00 0.00 74 1009.5
20260831020001 80 258 8.0 15.0 0.00 0.00 0.00 74 1009.6
20260831015906 80 238 9.0 15.0 0.00 0.00 0.00 74 1009.5
20260831015811 81 273 9.0 16.0 0.00 0.00 0.00 74 1009.5
20260831015715 81 260 10.0 16.0 0.00 0.00 0.00 74 1009.6
20260831015640 81 257 10.0 16.0 0.00 0.00 0.00 74 1009.7
20260831015457 81 269 10.0 16.0 0.00 0.00 0.00 73 1009.6
20260831015402 81 225 9.0 16.0 0.00 0.00 0.00 74 1009.6
20260831015311 81 250 9.0 16.0 0.00 0.00 0.00 73 1009.6
20260831015216 81 266 9.0 16.0 0.00 0.00 0.00 74 1009.8
20260831015100 81 232 9.0 16.0 0.00 0.00 0.00 74 1009.7
20260831015004 81 236 9.0 21.0 0.00 0.00 0.00 74 1009.8
20260831014909 81 283 10.0 21.0 0.00 0.00 0.00 74 1009.8
20260831014754 81 254 10.0 21.0 0.00 0.00 0.00 74 1009.6
20260831014703 81 238 10.0 21.0 0.00 0.00 0.00 74 1009.7
20260831014608 81 255 11.0 21.0 0.00 0.00 0.00 75 1009.7
20260831014533 81 243 10.0 21.0 0.00 0.00 0.00 75 1009.6
20260831014357 81 274 11.0 21.0 0.00 0.00 0.00 76 1009.5
20260831014302 81 235 13.0 21.0 0.00 0.00 0.00 76 1009.5
20260831014228 80 227 12.0 21.0 0.00 0.00 0.00 77 1009.6
20260831014132 80 259 11.0 18.0 0.00 0.00 0.00 78 1009.6
20260831014019 80 243 11.0 18.0 0.00 0.00 0.00 79 1009.6
20260831013857 80 231 10.0 14.0 0.00 0.00 0.00 80 1009.5
20260831013802 80 256 8.0 10.0 0.00 0.00 0.00 81 1009.5
20260831013707 80 244 8.0 11.0 0.00 0.00 0.00 82 1009.5
20260831013611 80 243 7.0 10.0 0.00 0.00 0.00 82 1009.5
20260831013456 80 236 5.0 9.0 0.00 0.00 0.00 83 1009.5
20260831013425 80 221 5.0 10.0 0.00 0.00 0.00 83 1009.5
20260831013309 80 248 6.0 10.0 0.00 0.00 0.00 83 1009.5
20260831013154 80 206 6.0 10.0 0.00 0.00 0.00 83 1009.4
20260831013058 80 221 5.0 10.0 0.00 0.00 0.00 83 1009.4
20260831013003 80 217 4.0 10.0 0.00 0.00 0.00 83 1009.4
20260831012927 80 216 5.0 10.0 0.00 0.00 0.00 83 1009.4
20260831012754 80 211 6.0 10.0 0.00 0.00 0.00 83 1009.2
20260831012659 80 215 7.0 10.0 0.00 0.00 0.00 83 1009.2
20260831012624 80 226 7.0 10.0 0.00 0.00 0.00 83 1009.2
20260831012508 80 234 6.0 10.0 0.00 0.00 0.00 83 1009.2
20260831012433 80 212 6.0 10.0 0.00 0.00 0.00 83 1009.1
20260831012256 80 192 6.0 11.0 0.00 0.00 0.00 83 1009.1
20260831012201 80 225 6.0 11.0 0.00 0.00 0.00 83 1009.0
20260831012126 80 209 6.0 11.0 0.00 0.00 0.00 83 1009.1
20260831011954 80 226 7.0 11.0 0.00 0.00 0.00 83 1009.1
20260831011919 80 220 7.0 11.0 0.00 0.00 0.00 83 1009.2
20260831011803 80 221 7.0 11.0 0.00 0.00 0.00 82 1009.1
20260831011708 80 231 7.0 11.0 0.00 0.00 0.00 82 1009.1
20260831011633 80 201 7.0 11.0 0.00 0.00 0.00 82 1009.1
20260831011517 80 209 7.0 11.0 0.00 0.00 0.00 82 1009.1
20260831011357 80 207 7.0 10.0 0.00 0.00 0.00 82 1009.1
20260831011306 80 213 7.0 10.0 0.00 0.00 0.00 82 1009.1
20260831011211 80 235 7.0 10.0 0.00 0.00 0.00 82 1009.1
20260831011055 80 221 7.0 10.0 0.00 0.00 0.00 82 1009.1
20260831011000 80 225 7.0 10.0 0.00 0.00 0.00 82 1009.1
20260831010904 80 213 7.0 10.0 0.00 0.00 0.00 82 1009.1
20260831010807 80 203 6.0 10.0 0.00 0.00 0.00 82 1009.1
20260831010656 81 219 5.0 10.0 0.00 0.00 0.00 82 1009.1
20260831010621 81 231 6.0 10.0 0.00 0.00 0.00 82 1009.1
20260831010523 81 208 6.0 10.0 0.00 0.00 0.00 82 1009.1
20260831010405 81 223 6.0 10.0 0.00 0.00 0.00 82 1009.1
20260831010310 81 200 7.0 10.0 0.00 0.00 0.00 82 1009.1
20260831010155 81 216 7.0 11.0 0.00 0.00 0.00 82 1009.1
20260831010100 81 211 7.0 10.0 0.00 0.00 0.00 82 1009.1
20260831010009 81 214 6.0 10.0 0.00 0.00 0.00 82 1009.1
20260831005934 81 215 6.0 10.0 0.00 0.00 0.00 82 1009.0
20260831005758 81 191 6.0 10.0 0.00 0.00 0.00 82 1009.0
20260831005703 81 192 5.0 10.0 0.00 0.00 0.00 82 1009.0
20260831005608 81 180 6.0 10.0 0.00 0.00 0.00 82 1009.0
20260831005512 81 174 7.0 10.0 0.00 0.00 0.00 82 1009.0
20260831005401 81 175 7.0 11.0 0.00 0.00 0.00 82 1008.9
20260831005327 81 195 6.0 11.0 0.00 0.00 0.00 82 1008.8
20260831005231 81 169 7.0 11.0 0.00 0.00 0.00 82 1008.8
20260831005134 81 173 8.0 11.0 0.00 0.00 0.00 81 1008.9
20260831004958 81 173 8.0 11.0 0.00 0.00 0.00 81 1008.8
20260831004903 81 171 8.0 11.0 0.00 0.00 0.00 81 1008.8
20260831004808 81 194 8.0 11.0 0.00 0.00 0.00 81 1008.8
20260831004733 81 157 8.0 11.0 0.00 0.00 0.00 81 1008.8
20260831004600 81 198 8.0 11.0 0.00 0.00 0.00 81 1008.8
20260831004505 81 175 7.0 11.0 0.00 0.00 0.00 81 1008.9
20260831004410 81 186 7.0 11.0 0.00 0.00 0.00 81 1008.9
20260831004255 81 188 7.0 10.0 0.00 0.00 0.00 81 1008.9
20260831004200 81 201 6.0 10.0 0.00 0.00 0.00 81 1008.9
20260831004105 81 182 5.0 10.0 0.00 0.00 0.00 81 1009.0
20260831003954 81 194 4.0 10.0 0.00 0.00 0.00 81 1009.0
20260831003859 81 190 6.0 10.0 0.00 0.00 0.00 80 1009.0
20260831003804 81 183 6.0 10.0 0.00 0.00 0.00 80 1009.1
20260831003709 81 190 7.0 10.0 0.00 0.00 0.00 80 1009.1
20260831003613 82 203 7.0 10.0 0.00 0.00 0.00 80 1009.1
20260831003517 82 190 7.0 10.0 0.00 0.00 0.00 80 1009.1
20260831003405 82 188 6.0 10.0 0.00 0.00 0.00 80 1009.1
20260831003310 82 197 7.0 10.0 0.00 0.00 0.00 80 1009.1
20260831003215 82 207 8.0 10.0 0.00 0.00 0.00 80 1009.2
20260831003059 82 187 8.0 13.0 0.00 0.00 0.00 80 1009.1
20260831003023 82 202 7.0 13.0 0.00 0.00 0.00 80 1009.1
20260831002927 82 196 6.0 13.0 0.00 0.00 0.00 80 1009.1
20260831002811 82 206 5.0 13.0 0.00 0.00 0.00 80 1009.1
20260831002700 82 191 6.0 13.0 0.00 0.00 0.00 80 1009.0
20260831002605 82 199 7.0 13.0 0.00 0.00 0.00 79 1009.1
20260831002510 82 197 8.0 13.0 0.00 0.00 0.00 79 1009.1
20260831002355 82 203 9.0 13.0 0.00 0.00 0.00 79 1008.9
20260831002259 82 197 9.0 13.0 0.00 0.00 0.00 79 1008.9
20260831002224 82 207 8.0 12.0 0.00 0.00 0.00 79 1008.9
20260831002112 82 202 8.0 14.0 0.00 0.00 0.00 79 1008.9
20260831002018 82 197 8.0 14.0 0.00 0.00 0.00 79 1008.9
20260831001855 82 197 8.0 14.0 0.00 0.00 0.00 79 1008.9
20260831001800 82 207 8.0 15.0 0.00 0.00 0.00 79 1009.0
20260831001705 82 190 6.0 14.0 0.00 0.00 0.00 79 1009.0
20260831001630 82 194 5.0 14.0 0.00 0.00 0.00 79 1009.0
20260831001458 83 205 6.0 14.0 0.00 0.00 0.00 78 1008.9
20260831001403 83 219 7.0 14.0 0.00 0.00 0.00 78 1009.0
20260831001328 83 220 7.0 14.0 0.00 0.00 0.00 78 1009.0
20260831001212 83 215 7.0 14.0 0.00 0.00 0.00 78 1008.8
20260831001057 83 198 9.0 14.0 0.00 0.00 0.00 78 1008.8
20260831001002 83 223 9.0 14.0 0.00 0.00 0.00 78 1008.9
20260831000907 83 196 8.0 13.0 0.00 0.00 0.00 78 1008.9
20260831000756 83 202 8.0 13.0 0.00 0.00 0.00 78 1008.9
20260831000700 83 197 8.0 13.0 0.00 0.00 0.00 78 1008.9
20260831000605 83 210 8.0 13.0 0.00 0.00 0.00 78 1008.8
20260831000510 83 186 8.0 13.0 0.00 0.00 0.00 78 1008.8
20260831000355 83 219 9.0 12.0 0.00 0.00 0.00 78 1008.8
20260831000300 83 204 8.0 12.0 0.00 0.00 0.00 78 1008.8
20260831000211 83 201 8.0 12.0 0.00 0.00 0.00 78 1008.8
20260831000133 83 177 7.0 12.0 0.00 0.00 0.00 78 1008.8
20260831000037 83 192 7.0 12.0 0.00 0.00 0.00 78 1008.7
20260830235854 83 204 7.0 12.0 0.00 0.00 0.00 78 1008.8
20260830235704 83 138 6.0 12.0 0.00 0.00 0.00 78 1008.8
20260830235609 83 184 6.0 9.0 0.00 0.00 0.00 78 1008.8
20260830235518 83 186 7.0 9.0 0.00 0.00 0.00 78 1008.8
20260830235356 83 182 7.0 9.0 0.00 0.00 0.00 78 1008.8
20260830235321 83 188 6.0 9.0 0.00 0.00 0.00 78 1008.8
20260830235205 83 204 6.0 7.0 0.00 0.00 0.00 78 1008.9
20260830235110 83 182 5.0 7.0 0.00 0.00 0.00 78 1008.9
20260830235034 84 185 5.0 8.0 0.00 0.00 0.00 78 1008.9
20260830234902 84 178 5.0 8.0 0.00 0.00 0.00 78 1009.0
20260830234807 84 182 5.0 10.0 0.00 0.00 0.00 77 1009.0
20260830234712 84 187 4.0 10.0 0.00 0.00 0.00 77 1009.0
20260830234557 84 163 4.0 10.0 0.00 0.00 0.00 77 1008.9
20260830234502 84 173 6.0 10.0 0.00 0.00 0.00 77 1009.0
20260830234406 84 171 6.0 11.0 0.00 0.00 0.00 77 1009.0
20260830234315 84 188 6.0 11.0 0.00 0.00 0.00 77 1008.9
20260830234219 84 198 6.0 11.0 0.00 0.00 0.00 77 1009.0
20260830234123 84 190 7.0 11.0 0.00 0.00 0.00 77 1009.1
20260830234007 84 189 7.0 11.0 0.00 0.00 0.00 77 1009.1
20260830233911 84 196 7.0 11.0 0.00 0.00 0.00 77 1009.0
20260830233816 84 192 6.0 11.0 0.00 0.00 0.00 77 1009.1
20260830233721 84 194 7.0 11.0 0.00 0.00 0.00 77 1009.1
20260830233558 83 233 7.0 11.0 0.00 0.00 0.00 77 1009.1
20260830233507 83 208 6.0 11.0 0.00 0.00 0.00 77 1009.1
20260830233412 83 202 5.0 10.0 0.00 0.00 0.00 77 1009.0
20260830233317 83 197 6.0 10.0 0.00 0.00 0.00 77 1009.0
20260830233201 83 208 7.0 10.0 0.00 0.00 0.00 77 1008.9
20260830233126 83 196 7.0 10.0 0.00 0.00 0.00 78 1008.9
20260830233010 83 231 8.0 10.0 0.00 0.00 0.00 77 1008.9
20260830232858 83 161 8.0 10.0 0.00 0.00 0.00 77 1008.9
20260830232803 83 198 8.0 10.0 0.00 0.00 0.00 77 1008.9
20260830232708 83 179 8.0 11.0 0.00 0.00 0.00 77 1008.9
20260830232613 83 191 7.0 12.0 0.00 0.00 0.00 78 1008.9
20260830232518 83 196 7.0 12.0 0.00 0.00 0.00 77 1008.9
20260830232356 83 193 7.0 12.0 0.00 0.00 0.00 77 1008.9
20260830232306 83 202 8.0 12.0 0.00 0.00 0.00 77 1008.9
20260830232210 83 176 8.0 12.0 0.00 0.00 0.00 77 1008.9
20260830232055 83 206 6.0 12.0 0.00 0.00 0.00 77 1008.9
20260830232020 83 172 7.0 12.0 0.00 0.00 0.00 77 1008.8
20260830231904 83 186 8.0 12.0 0.00 0.00 0.00 77 1008.9
20260830231808 83 180 8.0 12.0 0.00 0.00 0.00 77 1008.9
20260830231657 84 191 6.0 10.0 0.00 0.00 0.00 78 1008.9
20260830231602 83 173 6.0 8.0 0.00 0.00 0.00 78 1009.0
20260830231507 83 190 6.0 8.0 0.00 0.00 0.00 78 1009.0
20260830231411 83 190 5.0 8.0 0.00 0.00 0.00 77 1009.1
20260830231316 83 194 5.0 10.0 0.00 0.00 0.00 78 1009.1
20260830231154 83 186 5.0 10.0 0.00 0.00 0.00 77 1009.2
20260830231103 83 209 5.0 10.0 0.00 0.00 0.00 78 1009.2
20260830231028 83 199 5.0 10.0 0.00 0.00 0.00 77 1009.2
20260830230912 83 194 5.0 10.0 0.00 0.00 0.00 77 1009.3
20260830230818 84 193 5.0 10.0 0.00 0.00 0.00 77 1009.2
20260830230656 84 188 5.0 10.0 0.00 0.00 0.00 77 1009.2
20260830230601 84 186 6.0 10.0 0.00 0.00 0.00 76 1009.2
20260830230521 84 193 7.0 11.0 0.00 0.00 0.00 76 1009.1
20260830230409 84 199 7.0 11.0 0.00 0.00 0.00 76 1009.1
20260830230254 84 187 6.0 14.0 0.00 0.00 0.00 76 1009.1
20260830230158 84 184 6.0 14.0 0.00 0.00 0.00 76 1009.1
20260830230007 84 198 6.0 14.0 0.00 0.00 0.00 75 1009.0
20260830225912 84 180 5.0 14.0 0.00 0.00 0.00 76 1008.9
20260830225821 84 180 6.0 14.0 0.00 0.00 0.00 76 1008.9
20260830225704 84 187 7.0 14.0 0.00 0.00 0.00 75 1009.0
20260830225609 84 186 8.0 14.0 0.00 0.00 0.00 76 1009.0
20260830225454 84 205 8.0 14.0 0.00 0.00 0.00 75 1008.9
20260830225359 84 188 7.0 12.0 0.00 0.00 0.00 76 1009.0
20260830225305 84 204 6.0 12.0 0.00 0.00 0.00 75 1008.9
20260830225212 84 198 6.0 12.0 0.00 0.00 0.00 76 1008.9
20260830225056 84 186 8.0 12.0 0.00 0.00 0.00 76 1008.9
20260830225021 84 191 9.0 13.0 0.00 0.00 0.00 76 1009.0
20260830224905 84 184 9.0 13.0 0.00 0.00 0.00 76 1009.0
20260830224810 84 189 9.0 13.0 0.00 0.00 0.00 76 1009.0
20260830224715 84 200 8.0 13.0 0.00 0.00 0.00 75 1008.9
20260830224558 84 196 7.0 13.0 0.00 0.00 0.00 75 1008.9
20260830224523 84 194 8.0 13.0 0.00 0.00 0.00 75 1008.9
20260830224411 84 179 8.0 13.0 0.00 0.00 0.00 75 1008.9
20260830224316 84 189 8.0 13.0 0.00 0.00 0.00 75 1009.1
20260830224241 84 198 7.0 13.0 0.00 0.00 0.00 75 1009.1
20260830224058 84 143 8.0 13.0 0.00 0.00 0.00 75 1008.9
20260830224023 84 196 8.0 13.0 0.00 0.00 0.00 74 1009.0
20260830223907 85 194 8.0 13.0 0.00 0.00 0.00 75 1009.0
20260830223832 85 198 8.0 13.0 0.00 0.00 0.00 75 1008.9
20260830223659 85 208 10.0 13.0 0.00 0.00 0.00 75 1008.9
20260830223603 85 192 9.0 13.0 0.00 0.00 0.00 75 1008.9
20260830223508 85 190 8.0 13.0 0.00 0.00 0.00 75 1008.9
20260830223433 85 190 6.0 12.0 0.00 0.00 0.00 76 1008.9
20260830223316 85 200 6.0 12.0 0.00 0.00 0.00 76 1008.9
20260830223154 84 171 8.0 12.0 0.00 0.00 0.00 75 1009.0
20260830223103 85 198 8.0 12.0 0.00 0.00 0.00 75 1008.9
20260830223008 85 171 7.0 12.0 0.00 0.00 0.00 75 1008.9
20260830222912 85 188 6.0 13.0 0.00 0.00 0.00 76 1009.0
20260830222757 84 151 6.0 13.0 0.00 0.00 0.00 76 1008.9
20260830222702 84 198 6.0 13.0 0.00 0.00 0.00 76 1008.9
20260830222626 84 177 7.0 13.0 0.00 0.00 0.00 76 1008.9
20260830222510 84 191 8.0 13.0 0.00 0.00 0.00 76 1008.9
20260830222439 84 166 8.0 13.0 0.00 0.00 0.00 76 1008.9
20260830222256 84 222 10.0 13.0 0.00 0.00 0.00 76 1008.8
20260830222201 84 186 10.0 13.0 0.00 0.00 0.00 76 1008.9
20260830222106 84 184 8.0 13.0 0.00 0.00 0.00 75 1008.9
20260830222010 84 193 6.0 12.0 0.00 0.00 0.00 76 1008.9
20260830221855 84 184 6.0 12.0 0.00 0.00 0.00 77 1008.9
20260830221803 84 180 8.0 12.0 0.00 0.00 0.00 76 1008.9
20260830221707 84 184 8.0 13.0 0.00 0.00 0.00 77 1008.9
20260830221612 84 189 7.0 11.0 0.00 0.00 0.00 77 1009.0
20260830221457 84 180 8.0 11.0 0.00 0.00 0.00 77 1009.0
20260830221402 83 186 7.0 11.0 0.00 0.00 0.00 77 1009.0
20260830221307 83 194 7.0 11.0 0.00 0.00 0.00 78 1009.0
20260830221216 83 165 7.0 11.0 0.00 0.00 0.00 78 1009.1
20260830221141 83 169 8.0 11.0 0.00 0.00 0.00 77 1009.1
20260830220958 83 216 7.0 11.0 0.00 0.00 0.00 77 1009.1
20260830220923 83 193 7.0 11.0 0.00 0.00 0.00 77 1009.1
20260830220807 83 180 8.0 11.0 0.00 0.00 0.00 78 1009.1
20260830220712 83 193 8.0 12.0 0.00 0.00 0.00 77 1009.1
20260830220600 83 196 7.0 12.0 0.00 0.00 0.00 77 1009.2
20260830220505 83 217 7.0 12.0 0.00 0.00 0.00 77 1009.1
20260830220410 83 194 7.0 12.0 0.00 0.00 0.00 77 1009.1
20260830220255 83 168 8.0 12.0 0.00 0.00 0.00 76 1009.2
20260830220200 83 182 8.0 12.0 0.00 0.00 0.00 77 1009.1
20260830220105 83 198 9.0 12.0 0.00 0.00 0.00 76 1009.2
20260830215954 83 188 9.0 12.0 0.00 0.00 0.00 76 1009.2
20260830215858 83 191 8.0 12.0 0.00 0.00 0.00 76 1009.2
20260830215803 83 182 8.0 12.0 0.00 0.00 0.00 76 1009.2
20260830215707 83 194 7.0 12.0 0.00 0.00 0.00 76 1009.2
20260830215632 83 211 6.0 12.0 0.00 0.00 0.00 76 1009.2
20260830215515 83 169 7.0 13.0 0.00 0.00 0.00 76 1009.3
20260830215359 83 202 8.0 13.0 0.00 0.00 0.00 76 1009.3
20260830215307 83 205 8.0 13.0 0.00 0.00 0.00 76 1009.3
20260830215232 83 192 9.0 13.0 0.00 0.00 0.00 77 1009.3
20260830215116 83 192 9.0 13.0 0.00 0.00 0.00 76 1009.3
20260830214954 83 188 10.0 13.0 0.00 0.00 0.00 77 1009.3
20260830214919 83 194 9.0 13.0 0.00 0.00 0.00 77 1009.2
20260830214803 83 194 9.0 13.0 0.00 0.00 0.00 76 1009.3
20260830214708 83 189 9.0 13.0 0.00 0.00 0.00 77 1009.3
20260830214557 83 200 9.0 13.0 0.00 0.00 0.00 76 1009.4
20260830214502 83 203 8.0 13.0 0.00 0.00 0.00 76 1009.4
20260830214406 83 180 9.0 13.0 0.00 0.00 0.00 76 1009.4
20260830214331 83 202 9.0 13.0 0.00 0.00 0.00 76 1009.4
20260830214215 83 163 9.0 13.0 0.00 0.00 0.00 77 1009.4
20260830214120 83 192 9.0 13.0 0.00 0.00 0.00 76 1009.4
20260830213958 83 219 9.0 13.0 0.00 0.00 0.00 76 1009.5
20260830213923 83 189 7.0 12.0 0.00 0.00 0.00 76 1009.5
20260830213811 83 188 5.0 11.0 0.00 0.00 0.00 76 1009.5
20260830213737 83 205 5.0 11.0 0.00 0.00 0.00 76 1009.6
20260830213554 83 200 7.0 11.0 0.00 0.00 0.00 76 1009.5
20260830213519 83 189 9.0 11.0 0.00 0.00 0.00 76 1009.6
20260830213402 84 203 9.0 13.0 0.00 0.00 0.00 76 1009.6
20260830213326 84 194 9.0 13.0 0.00 0.00 0.00 76 1009.6
20260830213230 84 205 9.0 13.0 0.00 0.00 0.00 76 1009.6
20260830213057 84 209 8.0 14.0 0.00 0.00 0.00 76 1009.6
20260830213002 84 227 7.0 14.0 0.00 0.00 0.00 76 1009.6
20260830212927 83 196 7.0 14.0 0.00 0.00 0.00 76 1009.6
20260830212810 83 202 8.0 14.0 0.00 0.00 0.00 76 1009.6
20260830212716 83 167 9.0 14.0 0.00 0.00 0.00 76 1009.6
20260830212554 83 180 8.0 14.0 0.00 0.00 0.00 76 1009.6
20260830212458 83 205 8.0 14.0 0.00 0.00 0.00 77 1009.5
20260830212407 83 229 8.0 14.0 0.00 0.00 0.00 76 1009.5
20260830212312 83 191 8.0 14.0 0.00 0.00 0.00 77 1009.6
20260830212218 83 180 8.0 14.0 0.00 0.00 0.00 76 1009.6
20260830212056 83 238 9.0 14.0 0.00 0.00 0.00 76 1009.6
20260830212001 83 204 8.0 14.0 0.00 0.00 0.00 77 1009.7
20260830211906 83 215 7.0 13.0 0.00 0.00 0.00 77 1009.7
20260830211816 83 193 6.0 13.0 0.00 0.00 0.00 77 1009.7
20260830211654 83 218 6.0 13.0 0.00 0.00 0.00 77 1009.6
20260830211558 83 203 6.0 13.0 0.00 0.00 0.00 78 1009.7
20260830211504 83 229 8.0 14.0 0.00 0.00 0.00 77 1009.7
20260830211408 83 222 9.0 14.0 0.00 0.00 0.00 77 1009.7
20260830211257 83 216 8.0 14.0 0.00 0.00 0.00 76 1009.7
20260830211202 83 211 7.0 14.0 0.00 0.00 0.00 77 1009.7
20260830211107 83 213 8.0 14.0 0.00 0.00 0.00 77 1009.7
20260830211012 83 202 9.0 14.0 0.00 0.00 0.00 76 1009.7
20260830210857 83 222 11.0 14.0 0.00 0.00 0.00 75 1009.6
20260830210822 83 207 10.0 14.0 0.00 0.00 0.00 76 1009.7
20260830210705 83 198 9.0 14.0 0.00 0.00 0.00 77 1009.7
20260830210554 83 225 9.0 13.0 0.00 0.00 0.00 76 1009.6
20260830210459 83 209 10.0 13.0 0.00 0.00 0.00 76 1009.7
20260830210404 83 204 10.0 14.0 0.00 0.00 0.00 77 1009.7
20260830210308 83 190 10.0 14.0 0.00 0.00 0.00 77 1009.7
20260830210213 83 207 10.0 14.0 0.00 0.00 0.00 77 1009.6
20260830210118 83 172 8.0 14.0 0.00 0.00 0.00 77 1009.6
20260830210026 83 174 9.0 14.0 0.00 0.00 0.00 78 1009.7
20260830205909 83 196 10.0 14.0 0.00 0.00 0.00 77 1009.7
20260830205813 83 205 10.0 14.0 0.00 0.00 0.00 77 1009.6
20260830205718 82 202 10.0 17.0 0.00 0.00 0.00 78 1009.6
20260830205602 82 224 10.0 17.0 0.00 0.00 0.00 78 1009.7
20260830205507 82 184 10.0 17.0 0.00 0.00 0.00 77 1009.7
20260830205412 82 208 11.0 17.0 0.00 0.00 0.00 77 1009.7
20260830205320 82 216 11.0 17.0 0.00 0.00 0.00 77 1009.8
20260830205203 82 213 11.0 17.0 0.00 0.00 0.00 77 1009.8
20260830205108 82 219 11.0 17.0 0.00 0.00 0.00 77 1009.8
20260830205033 82 236 12.0 17.0 0.00 0.00 0.00 77 1009.7
20260830204857 82 239 10.0 16.0 0.00 0.00 0.00 79 1009.7
20260830204801 82 242 8.0 13.0 0.00 0.00 0.00 79 1009.8
20260830204726 82 218 7.0 11.0 0.00 0.00 0.00 79 1009.7
20260830204554 82 207 8.0 11.0 0.00 0.00 0.00 79 1009.8
20260830204519 82 187 8.0 12.0 0.00 0.00 0.00 80 1009.8
20260830204403 82 186 7.0 12.0 0.00 0.00 0.00 79 1009.8
20260830204308 82 175 6.0 12.0 0.00 0.00 0.00 80 1009.8
20260830204212 82 184 6.0 12.0 0.00 0.00 0.00 79 1009.9
20260830204057 82 150 6.0 12.0 0.00 0.00 0.00 80 1009.8
20260830204006 81 215 7.0 12.0 0.00 0.00 0.00 79 1009.9